GEFSCGP_500_meanwind_042.txt.gz
Wind_Speed
15 18 19 20 22 23 25 27 29 31 34 36 36 35 37 40 40 41 41 41 42 42 42 40 38 37 37 36 35 35 34 32 31 30 30 30 30 29 27 25 24 25 25 25
15 18 17 19 21 24 26 28 30 32 35 37 38 37 38 41 42 42 42 43 44 44 43 43 41 40 39 38 38 37 36 35 34 34 34 34 34 32 29 27 26 26 27 27
15 16 17 20 23 24 26 30 32 33 34 35 38 39 38 38 41 42 43 43 43 44 43 42 41 40 39 39 39 38 38 37 37 36 36 36 36 34 32 30 30 30 30 30
14 15 18 21 24 26 28 31 33 34 34 34 35 37 35 33 37 40 41 40 41 41 40 40 39 39 38 38 38 38 38 38 38 37 37 37 38 36 35 34 33 32 33 32
16 17 19 23 25 27 28 29 30 31 33 33 31 31 30 32 36 36 37 37 37 36 36 36 36 36 36 36 36 37 37 37 37 38 38 38 40 40 39 37 37 36 36 36
17 18 20 24 26 27 27 28 29 29 29 28 26 26 28 31 35 36 36 36 35 33 32 33 33 34 34 35 35 35 36 36 36 36 36 37 39 39 40 41 40 39 39 39
22 22 23 24 25 26 27 28 28 25 22 20 21 22 26 28 31 35 37 37 36 34 32 31 31 31 32 33 34 35 35 34 34 35 36 36 37 40 41 39 39 41 41 41
20 25 24 23 23 24 24 25 25 22 19 17 18 21 23 26 28 30 34 36 35 33 32 31 31 30 30 31 32 33 34 35 35 35 36 37 38 39 40 39 39 41 39 38
20 22 21 21 22 21 21 23 22 19 16 14 16 17 20 20 22 24 26 27 27 29 30 30 31 31 30 30 30 31 33 34 35 35 35 35 36 37 37 38 38 37 38 37
19 20 19 19 19 19 20 21 20 17 15 14 15 17 17 17 18 19 21 21 21 21 23 25 26 27 28 29 29 29 30 31 31 31 32 33 33 33 35 35 34 33 33 33
18 18 18 18 19 19 19 20 19 16 15 15 15 16 17 18 16 15 14 14 15 16 15 16 19 21 23 24 25 25 25 25 26 27 28 29 29 28 29 29 29 28 27 26
17 17 16 16 17 18 19 19 18 17 16 16 15 17 16 16 14 13 10 8 7 9 10 12 13 14 15 16 17 18 18 19 19 20 21 22 21 21 20 21 21 20 19 17
18 16 15 15 17 18 19 18 18 17 16 16 17 16 15 13 12 10 9 6 5 3 4 5 6 6 7 8 9 10 10 11 11 11 10 10 10 11 11 12 12 11 10 10
18 17 17 17 17 18 18 18 17 17 16 16 18 18 17 15 13 12 12 10 7 7 5 4 3 2 1 2 1 2 2 2 2 2 3 3 3 3 3 3 4 4 5 7
18 17 17 16 16 17 18 18 18 17 17 17 18 19 19 18 17 16 16 16 15 15 14 13 11 10 10 10 10 9 9 9 8 7 6 5 4 3 3 3 3 4 5 7
18 18 17 16 17 17 18 18 18 17 17 17 17 18 19 19 19 19 19 19 19 20 20 19 17 15 14 14 13 13 12 11 10 9 8 7 6 5 5 5 6 8 9 11
18 18 18 18 18 17 18 18 18 17 17 17 17 18 19 19 21 21 20 20 19 18 18 19 19 18 17 16 15 14 12 12 11 10 9 8 7 7 7 8 9 10 11 13
18 19 19 18 18 19 18 17 17 17 16 17 18 18 19 19 19 20 20 20 19 18 18 17 17 16 16 16 15 14 14 13 12 11 10 10 9 9 9 10 10 11 12 13
17 18 19 19 19 18 17 16 16 15 15 16 17 17 17 17 18 19 19 19 19 18 18 18 17 16 16 16 15 15 14 14 14 13 13 13 12 12 12 12 12 13 13 14
16 17 18 19 19 19 18 16 14 14 14 15 15 16 17 17 18 19 19 18 18 18 17 17 17 17 16 16 16 15 15 15 15 15 15 14 14 14 14 14 14 14 14 14
15 16 17 18 18 18 18 16 15 13 13 13 14 15 16 17 18 18 18 17 17 17 17 17 17 17 17 16 16 16 16 16 17 17 16 16 17 17 17 16 16 16 15 15
16 16 17 17 17 16 16 16 15 13 13 12 13 14 15 16 17 17 17 16 16 16 16 17 17 17 17 17 17 17 17 17 17 18 18 18 19 19 19 19 19 18 17 16
15 16 16 16 16 16 15 15 14 13 12 12 12 13 13 14 15 15 16 16 16 16 16 16 16 16 16 17 17 17 17 18 18 18 19 19 20 20 20 20 20 20 19 18
13 15 15 15 15 15 15 14 14 13 12 11 11 11 12 13 13 14 15 15 15 15 16 16 16 16 16 16 16 16 17 17 18 18 19 20 20 21 21 21 21 21 20 20
11 12 14 14 15 14 15 14 14 13 12 11 10 10 11 11 12 12 13 13 14 15 15 15 15 15 15 15 16 16 17 17 17 18 19 20 20 21 21 22 22 22 21 21
9 10 11 12 13 14 14 14 14 13 12 11 10 9 9 9 10 10 11 12 12 13 14 14 15 15 15 15 16 16 16 16 17 18 18 19 20 20 21 22 22 23 23 22

GEFSCGP_500_meanwind_048.txt.gz
Wind_Speed
17 18 18 19 19 20 20 20 21 22 23 25 27 29 31 34 36 37 38 39 38 39 39 39 40 40 39 39 39 38 36 35 34 32 31 30 29 29 28 28 27 26 25 24
16 16 17 17 18 19 19 20 20 22 24 27 29 31 34 36 37 39 40 41 41 41 41 41 42 42 41 41 42 41 40 38 36 35 34 33 32 32 30 28 28 29 29 27
14 14 16 17 18 19 20 21 22 23 25 28 30 32 34 36 37 39 40 41 41 41 42 42 42 42 43 43 43 43 42 41 39 38 37 36 35 35 34 32 32 31 31 29
13 15 17 18 19 19 20 22 23 24 25 26 28 31 31 33 35 37 38 39 40 40 40 41 40 40 41 42 44 44 43 42 41 40 39 38 38 36 36 35 35 33 32 32
12 15 17 19 19 20 20 21 22 23 24 25 27 29 30 30 32 34 36 38 38 38 39 40 39 39 38 37 38 39 40 40 40 39 39 38 38 37 37 37 35 33 33 32
12 14 16 18 18 18 18 19 19 20 21 22 23 25 26 26 28 29 31 33 34 34 35 36 37 36 34 33 32 33 35 35 37 38 38 37 37 36 36 36 35 34 34 33
11 13 15 16 17 17 17 17 17 18 19 20 21 22 24 24 25 26 26 27 28 29 31 31 31 30 29 29 29 29 31 32 33 34 35 35 35 35 35 34 34 33 32 32
12 13 14 15 15 15 15 16 16 16 17 17 18 19 20 22 22 23 23 23 23 23 23 23 23 24 25 25 25 26 27 29 30 31 32 32 32 33 32 31 31 31 31 31
13 13 13 13 14 15 15 16 15 14 15 15 15 17 18 19 20 20 19 18 19 18 15 15 16 17 18 20 21 23 24 25 27 28 29 29 29 29 30 30 30 30 31 30
13 13 13 14 14 15 15 15 14 13 14 14 14 14 14 14 16 16 16 16 14 13 12 11 10 11 12 14 16 18 20 22 24 26 27 27 27 28 28 29 29 29 30 29
14 14 14 14 15 15 15 14 13 13 13 14 14 15 15 15 16 16 16 15 13 14 13 9 7 7 8 9 11 13 15 17 18 20 22 23 23 24 24 25 26 26 25 25
15 15 15 14 14 15 15 14 13 14 15 15 15 15 16 17 18 17 16 15 14 13 12 10 9 7 6 6 6 7 8 10 12 14 15 17 18 19 20 20 19 19 19 19
16 17 16 15 15 16 15 15 14 14 15 16 16 16 17 17 18 19 19 18 17 16 15 13 13 10 7 6 5 3 3 4 5 6 8 10 10 11 12 12 12 12 12 13
17 18 17 17 17 16 16 15 15 16 16 17 18 18 17 17 18 19 19 19 18 18 18 17 15 14 12 10 9 8 7 5 4 3 1 1 1 3 3 4 5 5 6 7
18 18 18 18 17 17 16 15 16 16 17 18 19 19 19 18 17 18 19 19 19 18 18 18 18 17 16 16 15 14 13 12 11 10 8 6 5 4 3 2 2 3 4 4
18 18 19 18 17 16 16 16 16 16 17 17 18 18 19 19 19 19 19 19 19 19 19 19 18 17 16 15 14 14 14 14 13 12 10 9 8 7 7 5 4 4 5 6
18 18 19 19 18 17 16 16 17 16 17 17 17 17 18 18 18 18 18 18 18 18 18 19 19 19 19 18 17 16 16 15 14 13 12 11 10 9 8 8 7 7 7 8
17 18 18 19 19 19 18 17 17 16 16 16 17 17 17 18 17 17 18 18 18 18 18 18 18 18 19 19 19 18 18 17 17 16 15 14 12 11 11 10 10 10 10 10
17 18 19 19 19 19 19 17 17 16 16 16 16 16 17 17 17 18 18 18 18 18 18 18 18 18 18 18 19 19 18 18 18 18 17 17 16 15 14 13 12 12 11 11
16 18 18 19 19 19 18 17 17 16 16 16 16 16 17 17 18 18 18 18 18 18 19 19 19 19 19 19 19 19 19 19 19 18 18 17 17 17 17 16 15 14 13 12
15 16 17 18 18 18 18 17 17 16 16 16 15 16 16 17 18 18 18 18 18 18 19 19 20 20 19 19 19 19 19 19 18 18 18 18 18 18 18 17 17 16 16 15
12 14 16 16 17 17 17 17 17 16 16 15 15 16 16 16 17 17 18 18 18 18 18 18 19 19 19 18 18 18 18 18 18 18 19 19 18 18 19 19 18 18 17 17
10 12 14 15 16 17 17 16 16 15 15 15 15 15 15 15 16 16 17 17 17 17 17 17 17 17 18 18 18 17 17 18 18 18 19 19 19 19 19 20 20 19 19 18
7 9 11 13 14 15 16 16 15 15 14 14 14 14 14 14 14 14 15 16 16 16 16 16 16 17 17 17 17 17 17 17 18 18 18 19 20 20 20 21 21 20 20 19
6 7 8 10 12 13 14 15 14 14 14 13 12 12 12 12 12 12 12 13 13 14 15 15 15 15 15 15 16 16 16 17 17 17 18 19 20 20 21 21 22 22 21 20
6 6 7 8 9 10 12 13 13 13 13 12 11 10 10 10 10 10 10 10 11 11 12 12 13 13 14 14 15 15 16 16 17 17 18 19 19 20 20 21 22 22 23 22

GEFSCGP_500_meanwind_054.txt.gz
Wind_Speed
18 19 21 22 24 25 26 26 27 28 28 29 29 30 30 30 31 33 34 35 37 38 39 40 41 42 42 42 43 43 42 42 42 41 40 37 36 35 34 33 32 30 27 26
18 20 21 22 23 24 25 26 26 27 28 28 28 29 30 31 32 33 35 36 38 39 41 42 43 44 44 45 45 45 45 44 44 44 43 41 40 38 35 33 33 31 30 28
18 19 20 21 22 23 24 25 25 27 28 28 29 30 31 32 33 34 36 37 38 39 39 40 43 44 45 46 46 46 46 45 45 44 44 43 41 41 38 35 34 34 33 31
17 18 19 20 21 22 23 23 24 26 27 28 28 29 29 31 32 34 35 35 36 38 39 39 40 41 42 43 44 44 44 44 44 44 43 43 42 41 39 38 36 36 35 33
15 16 17 18 19 20 21 22 23 24 25 26 26 27 28 28 29 31 32 33 35 36 36 37 38 38 38 39 39 39 40 41 42 41 41 41 41 41 39 38 38 37 36 35
13 15 16 17 17 18 19 21 22 22 22 23 23 25 25 26 26 27 28 30 31 32 33 34 33 32 32 33 34 34 35 36 37 37 37 37 37 38 37 37 37 36 37 36
12 13 14 15 15 16 18 20 21 20 20 21 21 22 22 23 23 23 23 24 26 27 27 27 27 26 26 26 28 28 27 27 28 30 31 32 32 33 34 34 35 35 35 35
11 12 14 14 15 17 18 19 19 19 19 19 19 19 20 21 21 21 21 21 21 21 21 21 20 21 20 20 19 19 19 20 20 21 22 24 25 25 27 29 31 31 31 32
10 12 13 14 16 17 18 18 18 17 16 16 16 17 18 18 19 19 19 19 18 17 17 17 16 15 13 12 11 11 12 13 16 17 17 18 19 19 20 23 25 25 27 27
11 12 13 14 15 16 17 16 16 14 14 14 14 14 15 15 16 16 16 16 17 17 17 15 13 12 11 9 8 7 7 7 9 10 11 13 15 15 16 18 20 22 23 24
12 13 14 15 16 16 16 15 14 14 13 13 13 14 14 15 15 15 15 16 16 15 16 15 14 12 11 10 8 6 5 5 4 5 6 8 10 12 13 14 16 18 19 20
13 14 15 15 15 15 15 14 14 13 13 12 13 13 14 15 15 16 17 17 17 17 17 17 16 15 14 12 10 8 7 6 4 2 2 4 5 7 8 10 12 13 15 16
14 16 16 15 15 15 14 14 13 13 13 13 13 14 14 15 15 16 17 18 18 19 19 19 17 17 17 16 14 13 11 10 9 7 5 3 1 2 3 5 7 8 10 11
15 16 17 16 16 15 15 14 14 14 14 14 14 15 15 15 15 16 16 17 19 20 20 20 19 18 18 18 18 18 16 14 13 12 10 8 7 5 4 3 2 3 4 6
16 17 17 17 16 16 15 15 14 14 14 15 15 15 16 16 16 16 18 19 20 20 21 20 20 20 20 19 18 18 17 17 16 15 14 12 11 10 9 7 6 5 5 5
16 17 18 17 17 16 16 15 15 14 14 15 15 15 16 16 16 17 18 18 19 19 20 21 21 21 21 20 20 20 19 19 18 17 16 14 13 13 12 10 9 8 7 7
16 17 18 17 17 17 16 16 16 15 15 15 15 16 16 16 16 17 18 18 19 19 19 21 22 22 22 22 21 20 20 20 19 19 18 17 16 15 14 13 11 10 9 9
15 16 17 17 17 16 16 16 17 16 15 15 15 16 17 17 17 17 18 19 19 20 20 20 21 21 21 21 21 21 20 19 20 19 19 18 17 16 15 14 13 12 11 11
13 14 16 16 16 15 15 16 16 16 16 15 15 16 17 17 17 17 18 18 19 19 20 20 20 21 21 21 21 21 21 20 20 19 19 19 19 18 17 17 16 15 14 13
11 13 14 15 15 14 14 15 15 15 15 15 15 15 16 16 16 17 17 18 18 19 19 19 19 19 20 20 20 20 20 20 20 20 20 20 19 19 19 19 18 17 16 16
8 10 12 13 14 14 14 14 14 14 14 14 14 14 15 15 16 16 16 16 16 17 18 18 18 18 18 19 19 19 20 20 20 20 20 20 20 20 20 19 19 18 17 17
6 8 9 11 12 12 12 12 12 12 12 12 12 12 13 13 14 14 15 15 15 15 16 17 17 17 17 18 18 19 19 19 20 20 21 21 21 21 21 20 20 19 19 18
5 6 7 9 10 10 11 11 11 10 10 10 10 10 10 11 11 12 13 13 14 14 15 15 16 16 17 17 18 18 19 19 20 20 21 21 21 21 21 21 21 20 20 19
5 5 5 6 7 8 9 9 9 9 9 8 8 8 8 8 9 9 10 11 12 13 13 14 15 15 16 17 17 18 18 19 20 20 21 21 21 21 21 21 21 21 21 20
6 6 5 5 5 6 7 7 7 7 7 7 7 7 6 7 7 8 8 9 10 11 11 12 13 14 15 16 17 17 18 18 19 20 20 21 22 21 21 21 22 22 22 21
8 7 7 6 6 5 5 6 6 6 6 6 6 6 5 6 6 6 7 8 8 9 10 11 11 12 13 14 15 16 17 18 19 19 20 20 21 21 21 21 22 22 22 21

GEFSCGP_500_meanwind_060.txt.gz
Wind_Speed
18 19 20 22 23 25 26 27 28 28 28 29 30 31 31 32 32 32 33 34 35 36 37 38 39 40 41 42 43 44 45 47 48 48 47 47 45 44 43 42 42 39 38 36
18 19 20 22 23 25 26 26 27 27 27 28 29 30 30 30 31 31 32 33 34 36 37 38 39 40 41 42 42 43 44 45 46 47 47 48 48 47 45 44 44 42 39 38
17 19 20 22 23 24 25 25 26 26 26 27 28 28 28 29 29 30 31 32 33 34 35 35 37 38 38 39 40 41 42 43 44 45 46 46 47 47 46 45 44 43 42 39
16 17 19 19 20 21 22 22 23 23 23 24 24 27 26 27 28 28 29 30 31 31 31 31 32 34 35 36 37 38 39 39 40 42 43 43 44 44 44 44 44 42 41 41
13 14 16 18 19 20 20 20 20 21 22 23 23 24 25 24 25 25 26 26 27 28 28 29 29 30 30 31 31 32 33 35 36 38 39 39 40 40 41 42 42 42 40 39
12 14 15 17 17 18 18 19 20 20 21 21 21 21 22 21 21 21 22 23 23 23 24 24 25 25 25 25 25 27 29 30 31 32 33 34 35 36 36 37 38 39 39 38
10 12 13 15 16 17 17 18 19 19 19 19 19 18 19 18 18 18 18 19 19 19 20 20 20 20 20 20 21 21 22 22 24 24 26 27 28 30 31 33 35 35 36 35
9 11 13 14 15 16 15 16 16 17 17 17 16 16 17 17 17 16 16 17 17 16 16 17 17 16 16 16 16 15 15 15 15 15 17 19 21 23 25 27 29 31 32 33
9 11 13 14 14 14 14 14 14 14 14 14 14 15 15 15 15 16 17 17 16 15 15 16 17 15 13 12 13 12 12 11 9 8 8 10 13 15 18 21 24 26 29 29
9 10 12 12 13 13 13 13 13 13 13 13 13 14 14 15 15 16 16 16 15 15 15 16 16 14 13 13 13 12 11 8 6 4 3 3 6 9 12 15 17 20 21 23
10 10 11 12 13 13 13 13 13 13 12 13 13 13 13 13 14 14 14 15 15 15 15 15 15 15 14 14 14 13 12 10 8 6 4 2 1 3 6 9 12 14 16 18
11 11 12 13 13 13 13 13 13 13 13 13 13 13 13 13 14 14 14 15 16 16 16 17 17 18 17 17 16 16 15 13 12 10 7 5 3 1 1 4 6 9 12 14
12 12 13 13 14 14 14 13 14 14 13 13 14 13 13 13 14 15 15 16 17 18 19 19 19 20 20 19 19 18 18 16 14 12 10 7 6 4 1 1 2 4 6 9
13 13 14 14 14 15 14 14 14 14 14 14 14 14 14 14 14 14 15 16 18 18 19 21 21 21 20 20 20 19 19 18 18 16 14 12 10 8 6 4 1 2 3 5
13 14 14 15 15 15 16 15 14 14 14 14 14 14 14 14 15 15 15 17 18 18 19 20 21 21 21 21 21 20 20 20 19 18 17 15 13 11 9 7 5 4 2 3
14 14 14 15 15 16 17 16 15 14 15 15 15 15 15 15 15 16 16 16 17 18 19 19 20 21 21 21 21 20 20 20 20 18 17 16 15 14 12 11 9 7 5 4
13 14 14 14 15 15 16 16 15 15 15 16 16 15 15 15 16 16 17 17 18 19 19 20 20 21 21 21 20 20 20 20 19 19 18 17 15 14 13 12 11 9 8 7
11 13 14 13 14 14 14 15 15 15 15 15 15 14 14 15 15 15 16 17 18 18 19 19 20 21 21 21 21 20 20 20 20 20 19 18 17 16 15 14 13 12 10 9
9 11 12 13 13 13 13 13 13 13 13 14 13 13 13 14 14 15 15 16 16 17 18 18 19 19 20 20 20 20 20 20 20 20 20 19 18 17 16 16 14 13 12 11
6 8 10 11 11 12 12 11 11 11 11 12 12 12 12 13 13 14 14 15 16 16 16 17 17 18 19 19 19 19 20 20 20 20 20 20 19 18 18 17 17 16 14 13
4 5 7 8 9 10 11 10 10 10 9 9 10 11 11 12 12 12 13 13 14 15 15 16 16 17 17 18 19 19 20 20 20 20 20 20 20 19 19 19 18 17 16 15
4 4 5 6 7 8 8 9 9 9 8 8 8 9 9 10 11 11 12 12 13 14 15 15 16 16 17 17 18 18 19 20 20 20 20 20 20 20 20 19 19 19 17 16
6 5 5 5 5 6 7 7 8 8 8 8 7 7 8 8 9 10 10 11 11 12 13 14 15 15 16 17 17 18 19 19 20 21 21 21 21 21 20 20 19 19 19 18
9 8 7 6 6 6 6 6 7 7 8 8 7 7 7 7 8 8 9 9 10 10 11 12 13 14 15 15 16 17 18 18 19 20 21 21 20 20 21 20 20 20 20 19
11 11 10 9 8 8 7 7 7 7 7 8 8 8 8 7 8 8 8 9 9 9 10 10 11 12 13 14 15 16 17 17 18 19 20 20 20 20 20 20 20 20 20 20
14 13 13 12 11 10 10 9 8 8 7 7 8 8 8 8 8 8 8 8 8 8 9 9 10 10 11 12 13 14 15 16 17 18 18 19 19 19 19 19 20 20 20 20

GEFSCGP_500_meanwind_066.txt.gz
Wind_Speed
16 17 18 19 20 22 24 26 28 34 34 34 34 33 31 30 31 32 33 34 35 35 36 36 36 36 37 38 39 40 40 41 41 42 43 43 44 44 44 44 43 43 41 40
17 18 18 20 22 23 25 26 27 32 30 29 30 30 29 27 28 29 30 31 31 32 33 33 34 34 34 35 36 37 37 38 39 40 40 41 42 42 42 42 42 42 41 40
18 19 18 21 23 23 24 26 25 27 28 26 27 28 28 26 26 26 28 29 29 29 29 29 30 30 31 31 31 32 33 34 35 36 37 38 40 40 40 40 40 40 40 40
17 17 19 21 23 22 23 24 23 23 24 25 25 26 27 26 25 26 27 27 27 27 27 26 26 26 26 27 27 28 29 30 31 32 33 34 35 37 38 38 38 39 39 38
15 15 18 20 21 21 21 22 21 20 20 20 20 21 26 24 24 25 26 26 25 25 25 24 23 23 23 23 23 24 25 26 27 28 30 31 33 34 35 36 37 36 36 37
14 15 17 18 18 19 19 19 18 17 17 17 17 20 26 24 24 24 24 23 23 23 22 21 21 20 20 20 20 21 21 21 23 24 25 26 28 29 31 32 33 33 34 34
11 12 14 16 16 16 16 16 16 15 16 18 19 22 22 22 22 21 21 21 21 21 20 20 20 19 18 19 19 19 18 18 18 18 19 21 22 24 25 27 28 29 30 31
11 13 11 13 15 15 15 14 14 11 8 15 18 19 19 19 19 19 19 19 20 20 20 19 18 18 18 18 17 17 16 16 16 15 15 15 15 16 17 20 22 24 25 27
9 11 11 13 13 13 14 13 13 11 10 10 15 18 16 16 17 17 18 19 19 19 19 17 17 18 18 17 16 15 14 14 14 14 13 12 11 9 9 11 14 17 20 22
7 9 9 10 11 12 12 13 12 11 11 8 11 16 17 16 16 17 18 18 19 19 18 18 18 19 19 19 18 17 16 15 15 14 13 11 9 7 6 7 8 11 14 16
6 7 7 9 11 13 13 13 12 12 12 11 11 13 14 15 16 16 17 17 18 19 19 19 20 20 20 19 19 20 19 17 17 15 14 13 10 9 8 7 6 6 8 12
6 7 9 10 12 13 13 12 13 13 12 12 12 13 13 14 15 15 16 17 17 18 19 19 20 20 20 20 20 20 20 19 18 17 16 14 13 11 10 9 7 5 4 6
7 8 9 11 12 13 12 12 13 13 13 13 13 13 13 14 15 15 16 17 18 18 19 20 20 20 20 21 21 21 20 20 19 18 17 16 15 13 11 10 8 7 5 4
8 9 11 13 14 14 14 13 13 13 14 14 14 14 13 14 15 16 17 17 18 18 19 20 21 21 21 21 22 22 21 21 20 20 19 18 17 15 13 12 11 9 7 5
9 10 11 12 13 14 14 14 13 13 14 14 14 14 14 15 16 16 17 17 18 19 20 21 21 21 22 22 22 22 22 21 21 21 20 18 18 17 15 13 12 11 9 7
9 10 11 11 12 13 13 13 14 14 14 13 14 14 14 15 16 16 17 17 18 19 20 21 21 21 22 22 22 22 22 22 22 21 20 20 19 18 17 16 14 12 10 9
7 9 10 11 11 12 12 13 13 13 13 13 13 14 14 15 15 16 16 16 17 17 19 20 21 21 22 22 22 22 22 22 22 22 21 21 20 19 18 17 16 14 12 11
6 7 9 10 11 11 12 12 12 12 12 13 13 13 13 15 15 15 16 16 16 17 18 19 20 20 21 21 22 23 23 22 22 22 22 21 21 21 20 19 17 16 14 13
5 6 7 8 10 11 11 11 11 11 11 12 12 12 13 13 14 15 15 15 16 16 17 18 19 19 20 20 22 22 23 23 23 23 23 22 22 21 21 20 19 18 17 15
5 5 6 7 8 9 10 10 10 11 10 11 11 12 12 12 13 14 14 15 15 16 17 18 18 19 19 20 20 21 22 23 23 23 23 23 23 23 22 21 21 20 18 17
7 7 7 7 7 8 9 9 10 10 11 11 11 11 12 12 13 13 13 13 14 15 16 17 17 18 18 19 19 20 21 22 23 23 23 23 23 23 23 22 22 22 21 19
9 9 9 9 8 8 8 8 9 9 10 10 11 11 11 11 12 12 13 13 13 13 14 15 16 17 17 18 18 19 20 21 22 22 22 23 23 23 24 23 23 22 22 21
12 12 11 11 10 10 10 9 9 9 9 10 10 10 11 11 11 11 12 12 12 13 13 14 14 15 16 17 17 18 19 20 21 21 22 22 22 23 23 23 23 22 22 22
14 14 14 14 13 12 12 11 11 11 10 10 10 10 10 10 10 10 11 11 12 12 12 12 13 13 14 15 16 16 17 18 19 20 20 21 22 22 22 23 23 22 22 22
17 16 16 16 16 15 15 14 13 12 12 11 11 10 10 10 10 10 10 11 11 11 11 11 12 12 13 13 14 14 15 16 17 18 19 19 20 21 21 22 22 22 22 21
20 20 19 19 18 18 17 16 16 15 14 14 13 12 11 11 10 10 10 10 10 10 10 11 11 11 12 12 12 13 14 14 15 16 16 17 18 19 20 20 20 20 21 20

GEFSCGP_500_meanwind_072.txt.gz
Wind_Speed
17 17 17 17 18 19 21 22 25 27 28 29 28 27 24 23 23 24 25 26 27 28 28 27 28 29 29 29 30 30 31 32 33 34 34 35 36 37 38 39 39 38 38 37
16 15 15 16 17 18 20 22 24 26 27 27 26 24 21 20 21 22 22 23 25 25 26 26 26 26 26 27 27 27 28 28 29 30 30 32 33 34 35 36 37 38 38 37
14 14 14 15 16 18 20 21 23 24 24 24 23 21 19 18 19 20 20 22 23 24 24 24 24 24 25 25 25 25 25 25 25 26 26 28 29 30 31 32 34 35 36 36
11 12 13 14 15 17 19 20 21 21 22 21 21 19 17 17 18 19 20 21 22 23 23 23 23 23 23 23 22 22 22 22 21 22 23 24 25 26 27 28 30 32 33 34
10 11 12 14 15 16 17 18 18 19 19 19 18 17 16 17 18 19 20 21 22 23 22 22 22 21 21 20 19 19 19 19 18 18 19 20 21 22 24 25 27 29 31 32
9 10 11 13 14 15 16 16 16 16 16 15 15 16 16 17 18 20 20 21 21 21 21 21 21 21 20 19 19 18 18 17 16 16 16 16 16 18 19 21 22 25 27 29
6 8 10 11 12 13 13 13 13 13 13 13 13 13 15 16 17 19 19 19 19 19 20 20 21 21 20 19 19 18 17 16 16 15 14 14 13 13 14 16 18 20 22 25
3 4 5 7 9 10 12 12 12 13 13 12 13 13 13 14 15 16 17 18 18 19 19 20 20 20 20 19 19 18 17 17 16 15 14 13 12 11 11 12 13 16 18 20
0 2 4 6 8 10 11 12 12 12 12 12 12 12 12 13 14 15 16 17 18 18 19 20 20 21 20 20 19 19 18 18 16 15 14 13 12 11 9 8 8 10 12 16
2 3 5 6 8 9 10 12 12 12 13 12 12 12 13 13 14 15 16 17 18 19 20 20 21 21 21 20 20 20 19 19 18 17 16 15 13 12 10 8 6 6 8 10
3 3 4 6 7 8 9 10 11 12 12 13 13 13 13 14 15 15 16 17 18 19 21 21 22 22 22 21 20 20 20 20 19 18 17 16 15 13 11 10 7 5 5 7
4 4 4 5 7 8 10 10 11 12 13 13 13 14 14 14 15 16 16 17 18 20 21 22 22 22 23 22 22 21 21 20 20 19 18 17 16 15 13 11 9 7 6 6
6 6 6 6 8 9 10 11 11 12 12 13 13 13 14 15 16 16 16 16 18 19 21 22 22 23 23 23 23 22 22 21 21 20 20 19 17 16 15 13 11 9 7 6
7 7 7 7 8 9 10 10 11 11 12 12 13 13 14 14 15 16 16 17 18 19 20 21 21 22 23 23 23 23 23 23 22 21 20 20 19 17 16 14 13 12 10 7
6 6 7 7 7 8 9 10 11 11 11 12 13 13 14 14 14 15 16 17 18 18 19 20 21 21 22 23 24 23 23 23 23 22 21 20 19 18 17 16 15 13 11 9
5 6 6 6 7 7 8 9 9 10 10 11 12 12 13 14 14 15 16 17 18 18 19 20 21 21 22 22 23 23 23 23 23 23 22 21 20 19 18 17 16 14 13 10
4 5 5 6 6 7 7 8 8 9 9 10 10 11 11 12 13 14 15 16 17 17 18 19 20 21 21 22 23 23 23 23 23 23 23 22 21 21 19 18 17 16 14 12
2 3 4 4 5 5 6 7 8 8 9 9 9 10 10 11 12 13 14 15 16 17 18 19 19 20 21 21 22 23 23 23 24 24 24 24 23 22 20 19 18 17 16 14
0 1 2 3 3 4 5 6 6 7 8 8 9 9 10 11 12 13 13 14 15 16 17 18 18 19 20 20 21 22 23 23 23 24 24 24 24 23 22 21 20 19 18 16
3 2 2 2 3 4 5 6 6 7 7 8 8 9 9 10 11 12 12 13 13 14 15 16 17 18 18 19 20 21 21 22 22 23 23 24 24 24 23 22 21 21 20 19
6 5 5 4 5 5 5 5 6 6 7 8 9 9 9 10 11 11 12 12 13 14 14 15 16 17 18 18 19 19 20 21 21 22 22 23 23 23 23 22 21 21 20 19
8 8 7 7 7 7 7 7 7 7 8 9 9 9 10 10 11 11 12 12 12 13 14 14 15 15 16 17 17 18 19 20 20 21 21 22 22 22 22 22 21 21 21 20
11 11 10 10 10 10 10 9 9 9 10 10 10 10 10 11 11 11 12 12 12 12 13 13 14 14 15 16 16 17 17 18 19 19 20 20 21 21 21 21 21 21 20 20
14 14 14 13 13 12 12 12 12 12 12 12 11 11 11 11 11 12 12 12 12 12 12 13 13 13 14 15 15 16 16 17 17 18 18 19 19 20 20 20 21 20 20 20
18 17 17 16 15 15 15 15 15 15 15 15 14 14 14 13 13 13 13 12 12 12 13 13 13 13 13 14 14 14 15 15 15 16 16 17 17 17 18 18 19 19 19 18
22 21 20 18 18 17 18 18 18 18 18 17 17 17 17 16 16 15 15 14 14 14 14 14 13 13 13 13 13 13 13 13 14 14 14 14 15 15 15 15 16 16 17 17

GEFSCGP_500_meanwind_078.txt.gz
Wind_Speed
18 17 17 17 18 19 20 22 23 24 24 24 23 22 22 21 22 22 23 24 24 24 24 24 23 23 23 24 24 25 25 26 26 27 28 29 30 31 32 34 35 36 38 39
17 16 16 16 18 19 20 22 23 23 23 23 21 20 20 20 20 21 21 22 22 22 22 22 22 22 23 23 23 23 24 24 24 24 24 25 27 28 29 30 32 34 36 38
16 15 15 16 17 18 19 20 21 21 21 20 19 17 17 17 18 19 19 20 20 20 20 20 21 22 22 22 22 22 22 22 21 21 21 22 23 24 25 27 29 31 33 35
14 13 14 15 15 16 17 18 19 19 18 17 16 14 14 15 16 17 17 17 18 18 19 19 21 22 22 22 22 21 20 20 20 19 19 20 20 20 21 23 25 26 28 31
13 12 12 13 13 14 15 16 17 17 15 14 14 13 13 14 14 15 15 16 17 18 19 20 21 21 22 22 21 21 20 20 19 19 18 18 18 18 19 19 21 23 25 27
11 10 10 10 11 12 13 14 14 14 13 12 13 13 12 13 14 14 15 16 17 18 19 20 21 21 22 22 22 21 20 20 19 18 18 17 16 16 16 16 17 19 21 23
9 8 7 8 8 10 11 12 12 11 11 11 12 12 12 13 14 15 15 16 17 18 19 21 22 22 23 22 22 21 21 20 20 19 18 17 17 15 14 14 14 15 17 19
7 6 6 6 7 8 9 9 9 10 10 10 11 12 13 14 14 15 15 16 17 18 20 22 22 23 23 23 23 22 21 20 20 20 19 18 17 16 14 12 12 13 14 16
6 5 4 4 5 6 6 7 8 8 9 10 10 11 12 14 14 15 15 16 17 19 21 22 22 23 23 24 24 23 22 21 20 21 21 20 19 17 14 12 11 10 11 13
5 4 3 3 3 4 4 6 7 8 8 10 10 11 13 13 14 15 15 16 18 19 20 21 22 23 23 24 24 23 23 22 21 21 21 20 19 18 16 14 11 9 9 10
4 3 2 1 2 3 3 5 6 7 8 9 10 11 12 13 14 15 16 17 18 19 20 21 21 22 23 24 24 24 23 23 22 22 22 21 20 19 17 15 12 10 9 8
4 3 1 1 2 3 4 4 5 6 8 9 10 11 12 12 14 15 16 17 18 19 20 21 21 22 23 24 24 24 23 23 23 23 23 22 21 20 18 16 14 11 10 8
4 3 2 1 2 3 4 4 5 6 7 8 9 10 11 12 13 14 16 17 18 19 20 21 22 22 23 24 24 24 24 24 24 24 24 24 23 22 20 18 15 13 11 9
4 3 2 2 2 3 4 4 5 6 6 8 9 10 10 11 12 14 15 17 18 19 20 21 21 22 23 23 24 24 25 24 24 25 24 24 24 23 21 19 17 15 13 10
4 3 2 2 2 3 3 4 5 5 6 7 8 9 10 11 12 13 15 16 17 19 20 20 21 22 23 23 24 24 25 25 25 25 25 25 25 24 22 21 19 17 14 12
4 3 2 1 1 2 3 4 4 5 6 6 7 8 9 10 12 13 14 15 16 18 19 20 20 21 22 23 23 24 25 25 25 25 26 26 26 25 23 22 20 18 16 14
3 2 1 0 0 1 2 3 4 5 6 7 7 9 10 10 12 13 14 15 16 17 18 19 19 20 21 22 23 24 24 25 25 25 25 26 26 26 24 23 21 20 18 17
3 2 1 1 1 1 2 3 4 5 6 7 8 9 10 11 12 13 14 15 15 16 17 18 18 19 20 21 22 23 24 24 25 24 25 25 25 25 25 24 22 21 19 18
4 4 3 3 3 3 3 4 5 6 7 8 9 9 10 11 12 13 14 14 15 16 16 17 17 18 19 20 21 22 23 24 24 24 24 24 25 25 24 24 23 22 21 19
6 6 6 6 5 5 6 6 6 7 8 9 10 10 11 11 12 13 14 14 15 15 16 16 17 17 18 19 20 21 22 22 23 23 24 24 24 24 24 23 23 22 21 20
9 9 9 9 9 9 8 9 9 9 10 10 11 11 12 12 12 13 14 14 15 15 16 16 17 17 18 18 18 19 20 21 22 22 23 23 23 23 23 23 22 22 21 20
11 11 11 11 11 11 11 11 11 12 12 12 13 13 13 13 13 14 14 14 15 15 16 16 16 17 17 18 18 18 19 20 20 21 21 22 22 22 22 22 22 22 21 20
14 14 13 13 13 14 14 14 14 14 15 15 15 15 15 15 15 15 15 15 16 16 16 16 17 17 17 18 18 18 19 19 19 20 20 20 20 21 21 21 21 21 21 20
17 17 17 16 16 16 16 16 17 17 17 18 18 18 18 18 18 18 18 18 18 18 18 18 18 18 18 18 18 18 18 19 19 19 19 19 19 19 19 19 20 20 20 19
20 19 19 19 19 19 19 19 19 20 20 20 20 20 20 21 21 21 21 20 20 20 20 20 19 19 19 19 19 19 19 19 19 18 18 18 18 18 17 17 17 18 18 18
22 22 22 22 21 22 22 22 22 23 23 23 23 23 23 23 23 23 23 23 23 23 22 22 22 21 21 21 20 20 20 19 19 19 18 18 17 17 17 16 15 15 15 15

GEFSCGP_500_meanwind_084.txt.gz
Wind_Speed
18 17 15 15 15 15 16 17 18 18 18 18 18 18 18 18 17 16 16 17 17 18 19 19 20 20 20 21 21 21 22 22 21 21 22 23 23 24 26 28 30 32 33 36
18 17 15 15 15 15 15 16 16 16 16 16 15 15 15 15 14 14 15 16 17 17 18 19 19 19 20 20 21 21 20 20 19 19 19 19 20 21 22 24 27 29 30 32
17 16 15 14 13 13 14 14 14 14 14 13 13 13 13 12 13 13 14 15 16 17 17 18 19 20 20 21 21 21 20 19 18 18 18 18 18 19 20 21 23 25 27 30
17 14 14 13 12 12 12 12 12 12 11 11 11 10 11 12 12 13 13 14 15 16 17 18 19 20 21 21 21 21 21 19 18 18 17 18 18 18 18 19 20 22 24 26
15 13 12 12 11 10 10 9 9 9 8 8 8 9 10 11 12 12 13 14 15 16 18 18 19 20 21 22 22 21 20 19 19 18 18 18 18 17 17 16 17 18 20 23
14 12 11 10 9 8 7 7 7 7 6 6 7 8 9 10 11 12 13 14 15 17 18 19 19 20 21 22 22 21 20 20 20 20 19 19 18 17 16 16 15 16 18 20
13 11 10 9 7 6 5 5 5 5 6 6 6 7 8 9 11 12 13 14 16 17 18 19 19 20 21 22 23 22 21 21 21 21 21 20 19 18 17 15 13 13 14 16
11 10 8 7 5 4 3 2 3 4 4 5 6 7 8 9 11 12 13 14 16 17 18 19 19 20 21 22 22 22 22 23 23 23 22 21 20 19 18 15 13 11 11 12
11 9 7 5 4 2 1 1 2 3 4 5 6 7 8 9 11 12 13 15 16 17 18 19 19 20 21 22 23 23 23 24 24 23 23 22 21 20 18 16 14 12 10 10
10 8 6 4 3 2 1 2 2 3 4 4 5 6 7 9 10 12 13 15 16 18 18 19 19 20 22 22 23 23 23 24 24 25 24 23 22 21 20 17 15 12 10 8
9 7 6 4 3 2 2 2 2 3 3 4 5 6 7 8 10 12 13 14 16 17 18 19 20 20 22 23 23 24 24 25 25 25 25 24 23 22 21 19 16 13 11 10
8 7 6 4 4 3 3 3 2 3 3 3 4 6 7 8 10 11 13 14 15 17 18 18 19 20 22 23 24 24 24 25 25 26 26 25 24 22 21 19 17 15 13 12
8 7 6 5 4 3 3 3 3 3 3 3 4 5 7 8 9 11 12 14 15 16 17 18 19 20 21 23 24 24 25 25 26 26 26 25 25 23 21 20 19 17 15 14
8 7 6 5 4 3 3 3 3 3 3 3 4 5 6 8 9 11 12 13 14 15 16 17 18 19 21 22 23 24 24 25 26 26 26 25 25 24 22 21 20 18 17 15
8 7 6 5 4 4 3 3 3 3 3 3 4 5 6 7 9 10 12 13 14 15 16 16 17 19 20 21 23 23 24 25 25 26 26 26 25 24 23 22 21 20 19 17
8 7 6 5 4 4 3 3 2 2 2 2 3 4 6 7 9 10 11 13 14 15 15 16 17 18 19 21 22 23 24 24 24 25 25 26 25 25 24 23 22 21 20 19
8 7 6 5 4 4 3 2 1 1 1 2 3 4 6 7 8 10 11 12 13 14 15 15 16 17 19 20 21 22 23 23 24 24 24 25 25 25 24 24 23 23 21 20
8 7 6 5 5 4 3 2 1 1 2 3 4 5 6 7 8 10 11 12 13 14 14 15 16 17 18 19 20 21 22 23 23 24 24 24 24 24 24 23 23 23 22 21
8 7 7 6 5 4 4 3 3 4 4 4 5 6 7 8 9 10 11 12 13 14 14 15 16 17 17 18 19 20 21 22 23 23 24 24 24 23 23 23 23 23 23 22
9 9 8 7 7 6 6 6 6 6 6 6 7 8 9 10 11 11 12 13 13 14 15 15 16 17 18 18 19 19 20 21 22 22 23 23 23 23 22 22 22 23 23 23
11 11 10 10 9 9 8 8 8 9 9 9 9 10 11 11 12 13 13 14 14 15 16 16 17 18 18 19 19 19 20 20 21 21 22 22 22 21 21 21 21 22 22 22
14 13 13 12 12 11 11 11 11 11 11 12 12 12 13 13 14 14 15 15 16 16 17 17 18 19 19 19 20 20 20 20 20 21 21 21 21 20 20 19 20 21 21 21
16 15 15 15 14 14 14 14 14 14 14 15 15 15 16 16 16 17 17 17 18 18 18 19 19 19 20 20 20 20 20 20 20 20 20 20 20 20 19 18 19 19 19 20
18 18 17 17 16 17 17 17 17 17 17 18 18 18 18 18 19 19 19 19 19 20 20 20 20 20 20 20 20 20 20 20 20 20 20 20 20 19 19 18 18 18 18 18
21 20 20 20 20 20 20 20 20 20 20 20 20 20 20 21 21 21 21 21 21 21 21 21 21 21 21 21 21 21 21 21 21 21 21 20 20 20 19 19 18 18 17 17
23 23 23 23 23 23 22 22 22 22 22 22 22 22 22 22 23 23 23 23 23 23 23 23 23 24 24 24 23 23 22 22 22 22 21 21 21 20 20 19 19 18 18 17

GEFSCGP_500_meanwind_090.txt.gz
Wind_Speed
20 18 16 15 16 16 15 14 14 18 19 18 19 19 18 18 17 17 17 18 18 18 18 19 20 20 21 21 22 22 22 22 21 20 20 19 20 20 21 21 22 23 24 26
19 17 15 15 15 15 13 13 15 17 17 16 16 15 14 15 15 16 16 16 17 17 18 19 20 20 20 21 22 22 22 21 21 20 19 19 19 20 20 19 20 20 21 23
17 15 15 15 14 14 13 15 14 14 16 14 13 11 11 12 13 14 15 15 16 17 18 19 20 20 20 21 22 22 22 22 21 20 20 20 20 19 19 18 18 18 19 20
18 16 15 15 15 13 14 13 12 12 13 11 10 11 11 11 12 13 13 14 15 17 17 18 18 19 20 21 22 23 22 22 22 21 21 21 20 20 18 17 17 17 17 18
18 17 16 15 14 12 12 11 10 10 9 8 8 9 11 12 12 12 13 15 16 16 17 17 18 19 20 21 22 23 23 23 23 22 22 22 21 20 19 17 16 15 16 17
17 15 15 14 12 12 11 9 7 5 5 6 6 8 10 11 11 12 13 14 15 16 16 17 18 19 20 22 23 23 23 23 23 23 23 22 21 21 20 18 16 15 15 15
13 13 13 12 12 11 9 7 3 4 6 7 8 9 9 9 10 11 12 13 14 15 16 17 18 19 21 22 23 23 23 23 24 24 24 23 22 21 20 18 16 14 13 13
8 10 11 11 11 10 8 6 6 5 4 7 8 8 8 8 8 10 11 12 13 14 16 17 18 19 21 22 23 24 24 24 24 25 24 24 23 22 21 20 17 14 13 12
9 12 10 9 9 9 8 6 6 6 6 5 7 7 5 7 7 8 9 11 12 14 15 16 17 19 21 22 24 24 24 25 25 25 25 24 23 23 22 21 18 16 14 13
12 10 8 8 8 8 7 7 6 6 6 4 5 8 6 5 7 7 9 10 12 13 15 16 17 18 20 22 23 24 24 25 25 25 25 25 24 23 23 22 20 18 16 14
10 8 8 7 7 7 7 7 6 6 5 5 5 5 5 5 6 7 8 10 12 13 14 16 17 18 20 21 22 23 24 25 26 26 26 25 24 24 23 22 21 19 17 15
13 10 7 6 5 6 7 7 7 7 6 5 5 3 3 4 5 6 8 10 11 13 14 15 16 18 19 20 22 23 24 25 26 26 26 25 25 24 23 23 22 20 19 17
13 11 7 6 6 7 8 7 7 7 6 5 5 3 3 3 4 6 8 10 11 12 14 15 16 17 19 20 21 22 23 25 25 26 26 26 25 24 24 24 23 21 20 19
11 11 11 10 10 9 7 7 7 7 7 6 5 4 3 4 5 6 8 9 11 12 13 15 16 17 19 20 21 22 23 24 25 25 25 25 25 24 24 23 23 23 22 20
11 11 11 10 10 9 8 7 7 7 7 6 5 4 4 4 5 6 8 9 11 12 13 15 16 17 18 19 20 21 23 23 24 24 25 25 24 24 24 24 24 24 23 21
10 10 10 9 9 9 8 8 8 7 7 6 6 5 5 5 6 7 8 9 11 12 14 15 16 17 18 19 20 21 22 23 23 24 24 24 24 24 24 24 24 24 24 23
10 10 10 9 9 9 8 8 8 8 7 7 7 6 6 6 7 8 9 10 12 13 14 15 16 17 18 19 20 21 21 22 22 22 23 23 24 24 24 23 23 24 24 24
11 11 10 10 10 9 8 8 8 8 8 8 8 7 7 8 8 9 10 11 12 13 15 16 16 17 18 19 20 20 21 21 22 21 21 22 23 23 23 23 23 23 23 23
12 11 11 11 11 9 9 9 10 9 9 9 9 9 9 10 10 10 11 12 13 14 15 16 17 17 18 19 20 20 20 20 21 21 21 21 22 22 22 22 23 23 23 22
13 13 13 13 12 12 10 10 11 11 11 11 11 11 11 12 12 11 12 13 14 15 16 17 18 18 19 19 19 20 20 20 20 21 21 21 21 21 21 22 22 22 22 22
15 15 15 15 15 15 11 12 13 13 12 12 12 12 13 13 14 14 15 15 16 17 18 18 18 19 19 19 19 20 20 20 20 20 21 21 21 21 21 21 21 21 21 21
17 17 17 17 18 17 14 15 16 15 14 15 15 15 15 16 16 16 17 17 18 18 19 19 19 20 20 20 20 20 20 21 21 21 21 21 21 21 21 21 21 20 20 20
20 19 20 21 20 18 18 18 18 18 18 18 17 18 18 18 18 18 18 19 19 20 20 20 21 21 21 21 21 21 21 21 21 22 22 22 21 21 21 21 21 20 20 20
23 23 23 23 22 22 22 21 21 21 21 21 20 20 20 20 20 20 20 20 20 21 21 22 22 22 22 22 22 23 23 23 23 23 23 23 22 22 22 22 21 21 21 20
26 26 25 25 25 24 24 24 24 24 24 23 23 23 23 23 22 22 22 22 22 22 23 23 23 24 24 24 24 24 24 25 25 25 25 24 24 23 23 23 22 22 21 21
28 28 28 28 28 28 27 27 27 26 26 26 26 25 25 25 24 24 24 24 24 25 25 25 25 26 26 26 26 26 26 26 26 26 26 25 25 25 25 24 23 23 23 22

GEFSCGP_500_meanwind_096.txt.gz
Wind_Speed
26 24 21 18 16 15 14 13 12 10 9 9 8 8 8 8 9 10 11 13 14 14 15 17 17 18 19 19 20 21 21 21 21 21 20 19 18 17 16 16 16 17 17 18
25 22 20 18 16 15 12 12 11 9 8 9 8 7 7 7 8 9 11 12 14 15 16 17 18 18 19 20 21 22 22 22 21 20 20 19 18 17 16 16 15 15 15 16
21 20 19 17 15 14 12 10 9 8 8 8 7 6 5 5 7 8 10 12 14 15 15 16 17 18 19 20 21 22 22 22 21 21 20 20 19 18 17 17 16 15 14 14
21 19 18 16 14 12 11 9 8 8 7 7 6 4 3 3 6 8 10 12 13 13 14 15 16 17 19 20 21 22 23 23 22 22 21 21 20 19 18 17 17 15 14 12
19 18 16 14 11 10 9 8 8 8 7 6 4 2 2 3 5 7 9 10 11 12 13 15 16 17 19 20 21 22 23 23 23 22 22 21 20 20 19 18 17 16 14 12
18 17 15 12 10 10 9 8 8 7 6 5 4 1 2 3 5 6 7 8 9 11 12 14 16 17 18 20 21 23 23 24 24 23 23 22 21 21 20 19 18 16 15 13
17 16 13 11 10 10 9 9 9 7 7 6 4 1 2 3 4 4 5 7 9 10 12 13 15 17 18 19 21 23 23 24 24 24 23 23 22 22 21 20 19 17 16 14
15 13 12 10 9 9 9 9 9 8 8 7 4 2 1 1 2 3 5 6 8 9 11 13 14 16 18 19 21 22 23 24 24 24 24 23 23 22 22 21 20 18 17 15
15 13 12 10 8 8 7 7 7 8 8 7 5 3 2 1 1 2 4 5 7 9 11 12 14 15 17 19 20 21 23 23 24 24 24 24 23 23 22 21 21 20 18 16
13 11 10 8 7 7 6 7 7 7 7 6 5 4 3 2 1 1 3 4 6 8 10 12 13 15 16 18 19 20 22 23 23 24 24 24 24 23 22 21 21 21 19 18
10 10 9 9 8 7 7 7 7 7 7 6 5 4 3 3 2 1 1 3 5 7 9 11 13 14 16 17 19 20 21 22 23 24 24 24 23 22 22 22 21 21 20 19
11 10 9 9 9 8 8 8 8 8 7 7 5 4 4 3 3 1 1 3 5 7 9 11 13 14 16 17 18 19 20 22 23 23 23 24 23 22 22 22 21 21 20 19
11 11 10 10 9 9 9 8 8 8 8 7 6 5 5 4 3 2 1 3 5 7 9 11 13 14 16 17 18 19 20 21 22 22 23 23 23 23 22 22 22 21 21 20
11 11 11 11 10 10 9 9 8 8 8 7 6 5 5 4 4 3 3 4 5 7 9 11 12 14 15 17 18 19 19 20 21 22 22 22 22 22 22 22 21 21 21 20
11 11 12 11 11 11 10 9 9 9 9 8 7 6 6 5 5 4 4 5 6 8 9 11 12 14 15 17 18 18 19 20 21 21 21 21 22 22 22 22 21 21 21 21
11 11 12 11 11 11 10 9 10 10 9 8 8 7 6 6 6 5 5 5 7 8 10 11 13 14 15 17 17 18 19 20 20 21 21 21 21 21 21 21 21 21 21 21
11 12 12 12 12 12 10 10 11 10 10 9 8 8 7 6 6 6 6 7 8 9 11 12 13 14 15 17 18 18 19 19 20 20 21 21 21 21 21 21 21 21 21 20
11 12 12 12 13 13 10 12 12 11 10 10 9 9 8 7 7 7 8 8 9 10 12 13 14 15 16 17 18 18 19 19 20 20 21 21 21 21 21 21 20 20 20 20
13 12 13 13 13 12 12 12 12 12 11 11 11 10 9 9 9 9 10 10 11 12 13 14 15 16 17 17 18 19 19 20 20 20 21 21 21 21 21 21 20 20 20 20
14 14 14 14 14 12 12 13 14 13 12 12 12 11 11 11 11 11 11 12 13 14 15 15 16 16 17 18 18 19 20 20 20 20 21 21 20 20 21 21 21 20 20 19
17 16 16 16 16 13 13 15 15 14 13 13 13 13 12 12 13 13 13 14 14 15 16 16 16 17 18 18 19 20 21 21 21 21 21 21 21 21 21 21 21 21 20 19
18 18 18 18 18 15 16 16 16 16 16 15 15 15 15 15 15 15 16 16 16 17 17 17 17 18 19 19 20 21 21 22 22 22 22 22 22 22 22 21 21 21 20 20
20 20 21 21 19 18 19 19 18 18 18 17 17 17 17 17 17 17 18 18 18 18 18 18 19 19 20 21 21 22 23 23 23 23 23 23 23 23 22 22 21 21 21 20
24 24 24 23 22 21 21 21 21 21 21 20 20 20 19 19 19 19 20 20 20 20 19 20 20 21 21 22 22 23 24 24 24 24 24 24 24 23 23 22 22 22 21 21
26 27 27 27 25 25 24 24 24 24 23 23 23 22 22 21 21 21 21 21 22 21 21 22 22 23 23 23 24 25 25 25 25 26 26 25 25 24 24 23 23 23 23 22
28 29 30 29 28 29 27 27 27 27 26 25 25 25 24 24 24 24 24 24 23 23 24 24 24 24 25 25 26 26 26 26 27 27 27 26 26 25 25 24 24 24 24 23

GEFSCGP_500_meanwind_102.txt.gz
Wind_Speed
27 24 20 18 17 16 14 12 11 11 11 11 10 10 9 8 7 6 5 5 4 4 6 8 10 13 14 16 18 20 21 21 21 22 22 22 21 19 18 17 16 15 15 15
24 21 19 19 17 15 13 12 11 11 11 10 10 9 8 7 6 5 4 3 3 4 6 8 11 13 15 17 19 20 21 21 22 22 23 22 21 20 19 18 16 15 15 15
20 18 18 17 16 14 12 11 11 11 10 10 9 8 8 7 5 4 3 2 2 4 6 8 11 13 15 17 18 19 21 22 22 23 23 23 22 22 21 19 17 16 15 14
19 18 17 16 14 13 13 12 12 11 11 10 9 8 8 6 5 4 3 2 2 4 6 8 10 13 15 16 18 19 21 22 23 23 23 23 23 22 21 20 18 17 15 14
17 17 16 15 14 14 13 12 11 11 11 11 10 8 7 6 5 4 3 2 2 3 6 8 10 12 14 16 17 19 20 22 23 23 24 24 24 23 21 20 19 18 16 14
16 16 15 15 14 13 12 12 12 11 11 10 9 8 7 6 5 4 3 2 1 3 5 7 9 11 13 15 17 19 20 22 23 23 24 24 24 23 22 21 20 19 17 15
16 15 15 14 13 13 12 12 12 11 10 10 9 8 7 7 5 5 4 2 1 3 5 7 9 11 13 15 17 18 20 21 23 23 23 24 24 23 23 22 21 20 19 17
14 14 13 13 12 12 12 12 12 11 10 9 8 7 7 7 6 5 4 3 1 2 5 7 9 11 13 15 16 18 19 21 23 23 24 23 23 23 23 23 22 21 20 18
13 13 11 11 11 12 12 11 11 11 10 9 8 7 7 7 7 5 5 4 2 3 5 7 9 11 13 14 16 18 19 21 22 23 23 23 23 23 23 23 22 21 20 19
12 12 11 10 11 10 10 10 10 10 9 9 8 8 7 8 7 6 5 4 3 3 5 7 9 11 12 14 16 17 19 20 21 22 23 23 23 23 23 23 23 22 21 20
11 11 11 10 10 10 10 10 10 10 9 9 8 7 8 8 7 6 6 5 4 4 5 7 9 11 12 14 15 17 18 19 21 21 22 23 23 23 23 23 23 22 21 20
10 10 10 10 10 11 11 10 10 10 10 9 8 6 9 8 8 7 7 6 5 5 5 7 9 11 12 14 15 17 18 19 20 21 22 22 22 22 23 23 23 22 21 20
10 10 10 11 11 11 11 11 11 11 10 10 9 7 10 9 9 9 8 7 6 6 6 7 9 10 12 13 15 16 18 19 20 20 21 21 21 22 22 22 22 22 21 20
10 11 11 11 12 12 12 12 12 12 11 11 10 10 11 11 10 10 9 8 7 7 7 8 9 10 12 14 15 16 17 18 19 20 20 21 21 21 21 22 21 21 21 20
11 12 12 13 13 13 13 13 13 13 12 12 11 11 11 12 11 11 10 9 8 8 8 8 10 11 12 14 15 16 17 18 19 19 20 20 21 21 21 21 20 20 20 20
12 13 13 14 14 14 13 13 13 14 13 13 12 11 12 12 12 12 11 10 10 9 9 9 10 11 13 14 15 15 16 17 18 19 19 19 20 20 20 20 20 20 20 20
13 13 13 13 14 14 13 12 14 14 14 14 13 13 13 13 13 13 12 12 11 10 10 10 11 12 13 14 14 15 15 16 17 18 18 19 20 20 20 19 19 19 19 19
13 13 14 13 14 14 12 14 14 14 13 14 13 13 13 13 14 13 13 13 12 12 11 11 12 13 13 14 14 15 15 16 17 18 18 19 19 19 19 19 19 19 19 19
13 14 15 14 14 13 12 14 14 14 13 14 14 14 14 14 14 14 14 14 14 13 13 13 13 13 14 14 15 15 16 16 17 18 18 19 19 19 19 19 19 19 19 18
15 16 16 16 15 13 12 15 15 15 14 15 16 16 16 16 16 16 16 16 16 15 15 14 14 14 15 15 15 16 16 17 17 18 18 19 19 19 19 19 19 19 18 18
18 19 19 18 17 15 15 17 17 16 16 17 17 17 17 17 17 17 17 17 17 17 16 16 16 16 16 16 16 16 17 17 18 18 19 19 19 19 19 19 19 18 18 18
21 22 21 21 20 18 18 19 19 19 19 19 19 20 20 20 20 19 19 19 19 18 18 18 18 17 17 17 17 18 18 18 18 19 20 20 20 19 19 19 19 18 18 18
24 24 24 24 23 22 23 22 22 22 22 22 22 22 22 22 22 21 21 21 20 20 20 20 20 19 19 19 19 19 19 19 19 20 20 21 20 20 20 20 19 19 19 18
28 28 28 27 25 25 26 26 26 26 26 25 25 24 24 24 24 24 23 23 23 23 22 22 22 21 21 21 21 21 20 20 21 21 21 21 21 21 20 20 20 20 20 19
31 32 32 31 30 30 29 30 30 29 28 28 28 27 27 27 26 26 26 26 25 25 24 24 24 24 23 23 23 23 22 22 22 22 22 22 22 22 21 21 21 21 21 21
33 35 37 35 34 35 33 33 33 32 31 31 31 30 30 30 29 29 28 28 28 27 27 27 26 26 26 25 25 25 24 24 24 23 23 23 23 23 23 23 23 23 23 22

GEFSCGP_500_meanwind_108.txt.gz
Wind_Speed
22 21 20 19 19 18 17 15 13 13 11 10 10 10 10 8 7 6 5 4 4 4 4 4 5 6 7 8 10 11 13 14 16 18 19 19 18 18 17 17 16 15 14 12
21 21 21 21 19 18 16 14 13 13 11 10 9 9 9 8 7 6 5 5 4 3 3 4 5 6 7 8 10 11 13 15 16 18 19 19 19 19 18 18 17 16 13 12
19 20 21 19 18 16 15 14 13 12 10 9 8 8 9 7 7 6 6 4 4 3 4 4 5 6 7 8 10 12 13 15 17 18 19 19 19 19 18 18 17 16 14 12
20 20 20 18 17 15 14 14 12 10 9 8 8 7 8 7 7 6 5 4 4 4 4 4 5 5 7 8 10 12 14 15 16 18 19 19 20 20 19 19 18 17 15 13
18 18 18 17 16 14 13 12 11 9 8 8 8 7 8 7 7 6 5 5 4 4 3 4 5 6 7 8 10 12 13 15 16 17 18 19 20 20 20 19 18 17 16 14
17 16 16 16 15 13 12 10 9 9 9 8 8 7 7 7 7 6 6 5 5 4 4 4 5 6 7 9 10 12 13 15 16 17 18 19 19 20 20 19 19 18 16 15
15 15 14 14 13 12 10 9 9 9 9 9 8 8 7 8 7 6 6 6 5 5 4 5 5 6 7 9 10 12 13 14 16 17 18 18 19 19 20 20 19 18 17 15
13 13 13 13 12 10 9 9 9 9 10 10 8 8 8 8 8 7 7 6 6 5 5 5 6 6 7 9 10 11 13 14 16 17 17 18 18 19 19 20 19 19 17 16
12 11 11 11 11 10 10 9 9 9 9 8 8 8 9 9 9 8 8 7 7 6 6 6 6 6 7 8 10 11 13 14 15 16 17 17 18 18 19 19 19 19 18 16
9 9 9 9 9 9 9 9 9 9 9 8 7 8 10 10 9 9 9 8 8 7 7 7 6 6 7 8 10 11 12 13 14 15 16 17 18 18 18 18 18 18 18 16
8 7 8 8 8 8 9 9 9 9 9 8 8 8 10 10 10 10 9 9 9 8 8 7 7 7 7 8 10 11 12 13 14 15 16 16 17 17 18 18 18 18 17 16
7 7 7 8 9 9 9 9 9 10 10 9 9 8 10 11 10 10 10 10 10 9 9 8 7 7 8 9 10 11 12 12 13 14 15 16 16 17 17 17 17 17 17 16
6 6 6 8 9 9 10 10 11 11 11 11 10 9 11 11 12 11 11 11 10 10 10 9 8 8 8 9 10 11 11 12 13 14 14 15 16 16 16 16 17 17 17 16
7 8 8 9 10 11 11 11 12 12 12 12 11 11 12 13 13 13 12 11 11 11 11 10 9 9 9 9 10 10 11 12 13 13 14 15 15 16 16 16 16 16 16 15
8 9 10 11 12 12 12 12 13 13 13 13 12 12 13 14 14 14 13 12 12 12 12 11 10 10 9 9 10 10 11 12 12 13 14 14 15 15 15 15 15 15 15 15
9 10 11 12 13 13 13 13 14 14 14 15 14 13 15 16 15 14 14 13 13 13 13 12 12 11 11 10 10 11 11 11 12 13 13 14 15 15 15 15 15 15 15 15
11 12 12 13 14 14 14 14 15 16 16 16 15 14 16 16 16 15 15 14 14 14 14 13 13 12 12 12 11 11 11 12 12 12 13 14 15 15 14 14 15 15 14 14
12 13 14 14 15 16 14 15 16 17 16 17 16 17 17 16 16 16 15 15 15 15 14 15 14 14 13 13 13 12 12 12 12 12 13 14 15 15 14 14 14 14 14 14
14 14 16 16 16 16 15 16 17 17 17 18 18 18 18 17 17 16 16 17 16 16 16 16 15 15 15 15 14 14 13 13 13 13 13 14 14 15 15 14 13 13 13 13
16 17 18 18 18 18 16 17 17 18 19 19 19 18 18 18 18 18 18 18 17 17 17 17 17 16 16 16 16 15 15 14 14 14 14 14 14 14 14 14 14 13 13 13
19 20 20 21 21 21 20 19 19 20 21 20 20 20 19 19 19 20 20 19 19 19 19 19 19 18 18 18 17 17 16 16 16 15 15 15 15 15 15 15 14 14 14 13
23 23 23 24 24 24 23 23 23 23 23 22 22 22 22 22 22 22 22 22 21 21 21 21 21 20 20 20 19 19 19 18 17 17 17 16 16 16 15 15 15 15 15 15
26 26 27 27 27 27 27 27 27 26 26 26 25 25 25 25 24 25 24 24 24 23 23 23 23 23 22 22 22 21 21 20 20 19 19 18 18 17 17 16 16 16 16 16
30 30 30 30 30 30 30 30 30 30 30 29 28 28 28 28 27 27 27 27 26 26 26 25 25 25 25 24 24 24 23 22 22 22 21 20 20 19 19 18 18 18 18 17
33 34 35 35 34 34 34 34 34 34 33 33 32 31 31 31 30 30 30 29 29 28 28 28 28 27 27 27 26 26 25 25 24 24 23 23 22 21 21 20 20 19 19 19
36 37 39 38 38 38 37 37 37 37 37 37 36 35 35 34 34 33 32 32 32 31 31 30 30 29 29 29 28 28 27 27 26 26 25 25 24 24 23 23 22 22 21 21

GEFSCGP_500_meanwind_114.txt.gz
Wind_Speed
21 22 20 19 19 17 16 16 13 12 12 10 10 11 10 10 8 8 7 6 6 6 6 5 6 6 7 9 10 12 14 15 17 18 19 20 20 21 20 20 20 19 19 18
19 19 19 19 20 18 16 14 13 12 10 8 9 9 9 8 8 7 6 6 7 7 7 6 5 6 7 9 10 12 14 15 16 18 18 19 20 21 20 20 20 20 19 18
17 18 19 19 19 17 14 13 12 11 7 7 7 7 7 8 8 7 7 7 8 7 7 6 6 6 7 9 11 12 14 15 16 18 18 19 20 20 20 20 19 19 19 18
18 18 18 17 16 15 14 13 9 8 7 5 6 6 7 9 8 7 7 7 8 7 7 6 6 7 8 9 11 12 14 15 16 17 18 19 20 20 20 20 20 19 19 18
15 16 15 14 14 14 12 10 8 6 5 4 5 5 8 10 8 7 7 7 7 7 7 7 7 7 8 9 11 12 13 15 16 17 18 19 19 20 20 20 20 19 19 18
12 12 13 13 13 11 9 7 5 4 3 3 4 5 7 10 8 7 7 7 7 8 8 8 8 8 8 9 11 12 13 14 16 17 18 19 19 19 20 20 20 19 18 18
8 8 8 9 9 9 8 6 3 1 3 4 7 7 9 9 8 9 8 8 8 8 8 8 8 8 8 9 10 12 13 14 15 16 17 18 19 19 20 20 20 19 18 18
6 4 6 7 8 8 8 6 5 3 2 4 7 9 11 9 9 9 9 9 9 8 9 8 8 8 9 9 10 11 13 14 15 16 17 18 18 19 19 20 20 20 19 18
5 3 4 5 6 7 7 7 6 4 3 3 4 9 11 11 10 9 9 9 9 9 9 9 9 9 9 9 10 12 13 14 15 16 17 18 18 18 19 19 20 20 19 19
5 2 2 4 5 5 6 6 6 5 4 3 5 7 11 11 12 11 10 10 10 10 10 10 9 9 9 9 10 11 13 13 14 15 17 17 17 18 18 19 19 19 19 18
5 3 2 3 4 5 5 6 6 6 5 5 8 10 12 13 13 13 12 11 11 11 11 11 10 9 9 9 10 11 13 13 14 15 16 17 17 17 18 18 19 19 18 18
6 4 2 4 5 7 8 8 8 9 9 8 10 11 13 14 14 13 13 12 12 12 12 11 11 10 10 10 10 11 13 13 14 15 16 16 16 17 17 18 18 18 18 18
5 5 3 5 7 8 8 9 10 11 10 10 11 12 13 15 15 14 14 14 13 12 12 12 12 11 11 11 11 12 13 13 14 15 15 16 16 16 16 17 17 18 17 17
5 6 6 8 9 10 10 10 11 12 12 12 13 14 14 15 16 16 15 15 14 14 14 13 13 13 12 12 12 12 13 13 14 14 15 16 16 16 16 16 16 17 17 17
6 7 8 10 11 11 12 12 13 14 14 15 15 15 15 16 17 17 17 16 16 15 15 15 14 14 14 14 14 13 13 14 14 14 15 15 16 16 16 15 16 15 16 16
7 8 9 10 11 12 13 13 14 15 15 16 16 16 16 17 18 18 18 17 16 16 16 16 15 15 15 16 15 15 15 14 14 14 15 15 15 15 15 15 15 15 15 15
9 9 10 10 11 13 13 14 15 16 16 17 18 18 18 19 19 19 19 18 18 17 17 17 17 16 16 17 17 17 16 15 15 15 15 15 15 15 15 15 15 15 14 14
11 12 12 12 13 15 13 14 16 17 18 19 20 19 19 20 20 20 20 19 19 19 18 18 18 18 18 18 18 18 17 17 16 16 16 15 15 15 15 15 15 15 15 14
13 14 15 15 16 16 16 17 18 19 20 20 20 20 21 21 21 22 21 21 20 20 20 20 20 20 19 19 19 19 19 18 18 17 17 16 16 16 16 16 16 15 15 15
16 17 18 18 19 19 19 19 19 20 22 21 21 22 22 22 23 23 23 22 22 22 22 22 22 22 21 21 21 21 21 20 19 19 19 18 17 17 17 17 16 16 16 15
19 20 20 21 22 22 22 23 23 24 25 24 24 24 24 24 25 25 24 24 24 24 25 25 24 24 24 24 23 23 23 22 21 21 20 20 19 19 18 18 18 18 17 17
22 23 24 25 25 26 25 26 27 28 28 28 28 28 27 27 28 28 27 27 27 26 27 27 27 26 26 26 26 25 25 24 24 23 23 22 21 21 20 20 20 19 19 18
25 26 28 28 29 29 30 31 31 31 32 32 32 31 31 30 30 31 30 30 30 29 29 29 29 29 28 28 28 27 27 26 26 25 25 24 23 23 22 22 21 21 20 20
29 30 31 32 32 33 34 35 36 36 36 35 35 35 35 34 33 33 33 33 32 32 31 31 31 31 30 30 30 30 29 29 29 28 27 27 26 25 25 24 23 23 23 22
32 33 34 35 36 37 37 38 39 39 39 39 39 38 38 37 37 36 35 35 35 34 34 33 33 33 32 32 32 32 32 32 31 30 30 29 28 28 27 26 26 25 25 24
35 37 38 38 39 41 42 42 42 42 41 41 41 40 40 40 39 39 38 38 38 37 37 36 35 35 35 35 34 34 34 34 33 33 32 32 31 30 29 29 28 28 27 27

GEFSCGP_500_meanwind_120.txt.gz
Wind_Speed
21 21 20 19 19 19 17 16 14 12 11 10 8 7 6 5 4 4 3 3 3 3 3 3 3 4 5 5 6 8 9 11 12 14 15 16 17 18 19 19 19 19 19 18
20 19 19 19 18 17 17 13 12 11 10 8 6 6 5 4 4 3 3 3 3 3 3 3 4 5 5 5 7 8 9 11 12 14 15 16 17 18 19 19 19 19 19 19
18 19 19 18 16 15 13 11 10 9 9 8 6 5 4 4 4 2 2 2 2 3 3 3 4 5 5 6 7 8 9 11 12 13 15 16 17 18 18 19 19 19 19 19
16 17 16 15 13 12 12 10 8 7 8 6 6 4 5 4 3 2 2 2 2 2 3 4 5 5 5 6 7 8 9 11 12 13 15 16 17 18 18 19 19 19 19 19
14 14 15 14 12 12 11 9 7 6 7 5 5 4 3 3 3 2 2 2 2 3 4 4 4 5 6 6 7 8 9 11 12 13 14 15 16 17 18 18 19 19 19 19
14 14 14 13 11 11 10 10 8 6 6 4 3 3 3 2 2 1 1 1 2 3 4 4 5 5 6 6 7 8 9 10 11 12 14 15 16 17 17 18 18 19 19 18
16 15 14 12 11 11 10 10 7 6 5 3 3 3 2 2 2 1 1 2 2 3 4 4 5 6 6 7 7 8 9 10 11 12 13 15 15 16 17 17 18 18 18 19
16 15 13 12 11 10 9 8 7 6 4 4 3 2 1 1 1 2 1 2 3 3 4 5 6 6 7 7 7 8 9 10 11 12 13 15 15 16 16 16 17 17 18 18
14 13 12 11 10 9 8 6 6 5 4 4 3 1 0 1 3 3 3 3 4 5 6 6 7 7 7 7 7 8 9 10 11 12 13 14 15 15 16 16 16 17 17 17
12 12 11 10 9 8 7 6 5 5 5 5 3 2 2 3 4 4 4 4 5 6 7 7 8 8 8 8 8 8 9 10 11 12 13 14 14 15 15 15 16 16 17 17
9 9 9 9 7 6 6 5 5 5 5 5 4 3 3 4 5 5 5 6 7 7 8 8 8 9 9 9 9 9 9 10 11 11 13 14 14 14 14 14 15 15 16 16
5 5 6 6 5 5 5 4 5 5 5 5 5 4 5 6 6 6 7 7 8 9 9 9 9 10 10 10 10 10 10 11 11 12 13 14 14 14 14 14 14 14 15 15
4 4 4 3 3 3 4 4 5 6 6 7 7 6 7 8 8 8 8 8 9 9 10 10 10 10 11 11 11 11 12 12 12 12 13 13 14 14 14 13 13 13 14 14
3 3 3 3 3 3 4 4 5 6 7 8 8 8 9 10 10 10 10 10 10 10 10 11 12 12 12 12 12 12 13 13 13 13 13 13 14 14 14 13 13 13 13 13
3 3 4 4 5 4 5 6 6 7 8 9 9 10 10 11 11 12 12 12 12 12 12 13 13 13 13 13 13 14 14 14 14 14 14 14 14 14 14 13 12 12 12 12
4 5 5 6 6 5 6 7 8 9 9 10 11 10 11 12 13 14 14 14 14 14 14 14 15 15 15 15 15 15 15 15 15 15 15 14 14 14 14 13 13 12 12 12
5 6 6 7 7 7 7 8 9 10 11 12 12 13 13 14 15 15 16 16 16 16 16 17 17 17 17 17 17 17 17 17 17 17 17 16 15 15 14 14 13 13 13 12
6 7 8 8 8 8 8 10 10 12 12 13 14 14 15 15 16 16 17 17 18 18 18 18 19 19 19 19 19 19 19 19 19 18 18 18 17 17 16 15 15 14 14 13
8 9 10 10 10 10 11 12 13 14 14 14 15 16 16 16 17 18 19 19 20 20 20 21 21 22 22 22 21 21 21 21 20 20 20 20 19 19 18 17 16 15 15 15
11 11 12 13 13 13 13 13 15 16 16 16 17 18 18 19 20 20 21 22 23 23 23 23 23 23 24 24 24 23 23 23 22 22 22 22 22 21 20 19 18 18 17 16
13 14 15 15 16 17 16 17 17 18 18 19 20 21 21 22 22 23 23 24 25 25 26 26 26 26 26 26 26 26 25 25 25 25 24 24 24 24 23 22 21 20 20 19
16 17 18 19 20 20 21 21 22 22 23 23 24 24 25 25 26 26 26 26 27 28 28 28 28 28 28 28 28 28 28 28 27 27 27 26 26 26 25 25 24 23 22 21
20 20 21 22 23 24 24 25 25 26 27 27 28 29 29 29 30 30 30 30 30 31 30 30 30 31 30 31 31 31 30 31 30 29 29 28 28 28 28 27 26 26 25 24
23 24 25 26 26 27 28 28 29 30 30 31 31 32 32 33 33 33 34 34 33 33 33 33 32 32 32 32 33 33 33 33 33 32 31 31 31 30 30 29 29 28 28 27
26 28 29 30 30 31 31 31 32 32 33 34 34 35 36 36 37 37 37 37 36 36 36 35 35 35 35 35 35 35 35 35 34 34 34 33 33 32 32 32 31 30 30 29
30 32 32 32 34 35 35 35 35 36 36 37 38 39 39 40 40 40 40 39 39 39 39 39 39 39 38 38 37 37 37 37 37 36 36 36 35 35 34 34 33 33 32 32

GEFSCGP_500_meanwind_126.txt.gz
Wind_Speed
19 20 21 21 21 19 18 17 15 13 12 12 11 10 9 10 9 9 8 8 7 7 6 6 5 5 4 4 5 5 6 7 8 9 10 11 12 14 15 16 17 17 17 17
18 20 20 21 19 18 16 15 13 12 11 10 9 9 9 9 8 8 8 7 7 7 6 6 5 5 4 4 5 5 6 7 8 9 10 11 13 14 15 17 17 18 17 17
17 18 19 18 17 15 15 14 13 11 10 9 8 8 9 8 7 7 7 7 7 7 5 5 5 4 5 5 5 5 6 7 8 9 10 11 13 14 15 16 17 18 18 17
18 17 17 16 16 15 13 13 11 10 10 9 8 8 8 7 6 6 6 7 7 6 5 5 4 4 5 5 5 6 6 7 8 9 10 12 13 14 15 16 17 18 18 17
17 16 16 17 16 13 12 11 9 10 10 9 9 7 7 6 6 6 6 6 6 5 5 4 4 4 4 5 5 6 6 7 8 9 10 12 13 14 15 16 17 17 17 17
16 16 16 17 16 13 12 12 11 11 10 10 9 8 7 5 5 5 6 6 5 4 4 4 4 4 5 5 5 6 6 7 8 9 10 12 13 14 15 15 16 17 17 17
16 16 16 16 15 14 13 12 12 10 10 9 9 8 6 5 4 4 5 5 5 5 5 4 5 5 6 6 6 6 7 7 8 9 10 12 13 14 15 15 16 16 16 17
16 16 16 16 15 14 13 12 10 10 9 8 8 7 6 5 4 4 4 4 4 5 6 6 6 6 7 7 6 7 7 8 8 9 10 12 13 14 14 15 15 15 15 16
15 15 15 15 14 13 12 10 9 8 7 7 7 6 5 4 3 3 3 4 4 5 6 6 7 7 7 7 7 7 8 8 9 10 11 12 13 13 14 14 15 15 15 15
13 13 13 12 12 11 10 9 8 7 6 7 7 6 4 4 3 2 3 3 4 4 5 7 8 7 8 8 8 9 9 9 10 10 11 12 13 13 14 14 14 14 14 14
11 10 10 10 10 9 9 8 7 6 6 6 6 5 4 4 3 3 3 4 4 5 6 7 7 8 9 9 9 10 10 10 10 11 11 12 13 13 13 13 14 14 14 14
8 8 8 8 7 7 7 7 7 6 5 5 5 5 5 4 4 5 5 6 6 7 7 8 9 10 10 10 11 11 11 11 11 11 12 12 13 13 13 13 13 14 14 14
7 7 7 7 6 6 6 6 6 6 5 5 5 5 5 5 6 7 7 7 8 9 9 10 10 11 11 12 12 12 12 12 12 12 12 13 13 14 14 14 14 14 14 14
6 6 5 5 5 6 6 6 6 6 6 6 5 5 6 7 7 8 9 9 10 11 11 12 12 12 13 13 13 13 13 13 13 14 14 14 14 15 14 14 14 14 14 14
6 6 5 5 5 5 6 6 6 7 7 7 6 7 7 8 9 10 10 11 12 12 13 14 14 14 14 15 15 15 14 14 15 15 15 15 15 16 16 15 15 15 15 15
5 5 5 5 5 6 6 6 6 7 7 7 8 8 9 10 11 12 12 13 13 13 14 15 15 16 16 16 16 16 16 16 17 17 17 17 17 17 17 17 16 16 16 16
5 6 6 6 7 7 7 6 7 7 8 8 9 9 10 11 12 13 13 14 14 15 16 16 17 17 18 18 18 18 18 18 19 19 19 19 19 19 18 18 18 18 18 17
7 7 7 8 8 9 7 8 8 8 9 10 10 11 11 12 13 14 15 15 16 17 18 18 19 20 20 20 20 20 20 21 21 21 21 22 22 21 21 20 20 20 20 19
8 9 9 9 9 9 9 9 10 10 10 11 12 13 14 14 15 16 17 18 19 20 21 21 22 22 23 23 23 23 23 23 23 23 23 23 23 23 23 23 22 22 21 21
10 10 11 11 11 11 12 12 12 13 13 14 15 16 17 17 18 19 20 21 22 23 24 24 25 25 25 25 26 25 25 25 25 26 25 26 26 26 26 25 25 24 24 23
13 13 13 13 14 14 14 15 16 16 16 17 18 19 20 20 21 22 22 23 24 25 26 27 27 28 28 28 28 28 28 28 28 28 28 28 29 29 28 28 27 27 27 26
16 16 16 17 17 17 18 18 19 19 20 20 21 22 23 24 24 25 26 27 28 28 29 29 30 30 30 31 31 31 32 32 31 31 31 31 31 31 31 31 30 30 30 29
19 19 19 20 21 21 21 22 22 23 24 24 25 25 26 27 28 29 29 30 31 32 32 33 33 33 33 33 34 35 35 35 34 34 33 33 32 32 33 33 33 33 32 32
22 22 23 23 24 24 25 26 26 27 27 28 29 29 30 31 32 32 33 34 34 35 35 36 36 36 36 36 36 37 37 37 37 36 36 35 35 35 35 35 36 35 35 34
26 26 26 27 27 28 28 29 29 29 30 31 32 33 34 35 36 37 37 38 38 38 39 39 39 39 39 39 39 39 40 40 40 39 39 38 38 39 38 38 38 38 38 37
29 30 30 30 31 31 32 33 33 33 34 35 36 36 38 39 39 40 41 41 42 42 42 42 42 42 43 42 42 42 43 43 43 43 42 42 42 42 42 41 41 41 40 40

GEFSCGP_500_meanwind_132.txt.gz
Wind_Speed
20 21 22 23 22 21 20 18 18 18 17 16 15 14 12 12 12 10 9 8 7 7 7 7 7 7 7 7 6 6 6 7 7 7 8 9 10 11 12 13 14 15 15 15
19 20 22 22 22 20 19 18 17 16 15 14 12 12 11 11 11 10 9 7 7 7 7 7 7 7 7 7 7 7 7 7 7 7 8 9 10 11 12 13 14 14 15 16
19 21 21 21 20 19 18 17 16 15 14 13 12 11 10 10 10 9 8 8 7 7 7 7 7 7 7 7 7 7 7 7 7 7 8 9 10 11 12 13 14 14 15 15
19 20 20 20 19 19 17 16 15 13 13 12 12 10 10 9 9 8 7 7 7 7 7 7 6 7 7 7 7 7 7 7 7 8 9 10 10 11 12 13 14 14 15 15
19 19 20 19 18 18 16 16 15 14 12 11 11 11 10 9 8 7 6 7 7 8 7 7 6 6 6 7 7 7 7 7 8 8 9 10 11 11 12 13 13 14 15 15
18 19 19 18 18 17 16 14 13 12 12 11 12 11 10 9 7 6 6 7 7 7 7 7 6 6 7 7 7 7 7 8 8 9 9 10 11 11 12 13 13 13 14 15
17 17 17 17 17 16 15 14 13 12 12 12 12 11 10 8 7 6 6 7 7 7 7 6 6 6 7 7 7 7 7 8 8 9 9 10 10 11 12 12 13 13 14 15
16 16 16 16 16 15 14 14 14 13 12 11 10 10 8 7 7 6 6 6 6 6 6 6 6 6 7 7 7 7 7 8 8 9 9 10 10 11 12 12 13 13 14 15
15 15 15 15 15 14 14 13 12 12 11 10 10 8 8 7 7 6 6 6 6 6 5 6 6 6 7 7 8 8 8 9 9 9 10 10 10 11 11 12 13 13 14 15
14 14 14 14 14 13 13 12 12 11 10 10 9 9 8 7 6 5 5 5 5 5 5 6 6 6 7 8 8 9 9 10 10 10 11 11 11 12 12 12 13 13 14 14
13 12 12 12 12 12 12 10 9 9 9 9 8 9 8 7 6 5 5 5 5 5 6 6 6 7 7 8 8 9 10 11 11 11 11 11 12 12 13 13 13 14 14 15
11 11 10 10 10 10 10 9 8 8 8 8 8 8 8 7 6 5 5 5 5 5 6 7 8 8 8 9 9 10 10 11 11 12 12 12 13 13 14 14 14 14 15 15
10 10 9 8 9 9 8 8 7 8 7 7 7 7 8 7 7 6 6 5 5 5 6 8 8 9 9 10 10 11 11 12 12 13 13 13 14 14 14 15 15 15 15 16
9 9 9 9 8 8 8 8 8 7 7 7 7 8 8 7 8 7 7 6 6 7 7 8 9 10 10 11 12 12 12 13 13 14 14 15 15 15 16 16 16 16 16 16
9 9 9 9 9 8 8 8 8 8 8 8 8 8 8 8 8 8 8 8 8 8 9 10 10 11 11 12 13 13 14 14 15 15 16 16 16 17 17 17 17 17 17 17
9 9 9 9 9 9 8 8 8 8 8 9 9 9 9 9 9 9 9 9 9 10 11 11 12 12 13 13 14 14 15 16 16 17 17 18 18 18 19 19 19 19 19 19
10 10 10 10 10 10 9 8 9 10 10 10 10 10 10 10 10 10 10 11 11 12 12 13 13 14 15 15 15 16 17 17 18 18 19 19 20 20 20 21 21 21 21 21
11 11 11 11 11 12 10 10 10 11 11 11 10 11 11 11 11 11 12 12 13 14 14 15 16 16 17 17 18 19 19 20 20 20 21 21 22 22 23 23 23 23 23 23
12 13 12 13 13 12 11 11 11 11 12 12 12 12 12 13 13 13 14 14 15 16 17 18 18 19 19 20 20 21 21 22 22 23 23 24 24 25 25 25 26 26 26 26
13 13 14 14 14 13 12 13 13 13 13 13 14 14 14 15 15 15 16 17 18 18 19 20 21 21 22 22 23 23 24 24 25 25 26 26 27 28 28 29 29 29 29 29
15 15 15 15 16 15 15 14 15 15 15 15 15 16 16 17 17 18 19 19 20 21 21 22 23 23 24 24 25 26 26 27 28 28 29 29 30 31 31 32 32 32 32 32
17 17 17 17 18 17 17 17 17 17 17 17 18 18 19 19 20 20 21 22 22 23 24 25 25 26 27 27 28 29 29 30 30 31 32 33 33 34 34 34 34 35 35 34
19 18 19 19 19 19 19 19 19 20 20 20 20 21 21 22 23 23 24 24 25 26 27 28 28 29 30 30 31 32 32 33 34 35 36 36 37 37 38 38 37 37 37 37
21 21 21 22 22 22 22 22 22 22 22 23 23 24 24 25 25 26 27 27 28 29 30 31 32 32 33 34 35 36 36 37 37 38 38 39 39 40 40 40 40 41 41 41
23 24 24 24 24 25 25 25 25 25 25 26 26 27 27 28 29 29 30 31 32 33 34 35 35 36 37 38 39 39 40 40 40 41 41 42 42 43 43 44 44 44 44 44
26 27 27 27 27 27 27 27 27 28 28 28 29 30 31 31 32 33 34 35 36 36 37 38 39 40 41 42 42 43 43 43 44 45 45 46 46 46 46 47 47 46 46 46

GEFSCGP_500_meanwind_138.txt.gz
Wind_Speed
18 20 20 21 21 20 19 18 16 16 17 16 15 13 12 11 11 11 11 10 9 9 8 7 6 6 5 4 4 5 6 6 7 7 8 9 10 11 12 13 14 15 16 16
16 18 19 20 20 21 21 19 15 13 13 13 13 12 12 11 11 11 11 10 10 9 8 7 6 6 5 4 5 5 6 7 7 7 8 9 10 11 12 13 14 15 16 16
15 16 19 20 20 19 20 17 14 12 12 12 12 11 11 11 10 10 9 10 9 8 8 7 6 5 4 4 5 5 6 7 8 8 8 9 10 10 12 13 14 15 15 16
15 17 18 19 19 18 17 15 13 12 11 10 10 10 11 10 9 9 9 9 9 8 7 7 6 5 4 4 5 5 6 7 7 8 8 9 10 10 12 13 14 14 15 16
15 16 17 17 17 18 16 15 14 12 11 9 10 10 11 9 9 9 9 9 9 8 7 6 5 5 4 5 5 6 6 7 8 8 8 9 9 10 12 13 13 14 15 15
14 15 16 17 17 17 16 15 13 12 11 10 9 10 11 9 8 8 8 8 9 8 7 6 5 5 5 5 6 6 7 7 7 7 8 9 10 10 11 12 13 14 14 15
13 14 15 16 17 16 16 16 14 13 11 11 10 8 8 8 8 7 7 8 8 8 7 6 5 5 5 5 5 6 7 7 7 7 8 9 10 11 12 12 13 14 14 15
11 13 15 15 16 17 17 15 13 12 11 10 10 10 8 7 7 7 7 7 7 7 6 5 5 5 5 5 5 6 7 7 7 8 8 9 10 11 11 12 13 14 14 15
8 10 13 15 16 18 17 13 10 9 9 10 10 11 9 8 8 7 7 7 7 6 6 5 5 5 5 5 6 6 7 7 7 8 9 9 10 11 12 13 13 14 14 15
9 9 11 12 13 16 16 15 12 11 10 9 9 9 8 8 8 8 8 8 7 6 6 6 6 6 6 6 7 7 7 7 8 9 9 10 11 11 12 13 13 14 14 15
10 8 10 11 13 15 15 13 11 9 8 7 8 9 8 7 7 8 8 8 8 7 7 7 6 6 6 7 7 8 8 8 9 10 10 11 11 12 13 13 13 14 14 15
12 10 8 9 11 13 14 14 12 9 8 9 9 9 8 7 7 8 7 7 7 7 7 7 7 7 7 8 8 8 8 8 9 10 11 11 12 12 13 14 14 14 15 15
13 12 9 8 8 10 12 13 14 12 10 9 9 9 9 8 8 8 7 7 7 7 7 7 7 7 8 8 8 8 9 9 10 11 11 12 12 13 14 14 14 15 15 15
13 12 9 8 8 9 10 11 12 12 11 10 11 11 10 9 9 8 7 7 7 7 7 7 7 7 8 8 8 9 9 10 11 11 12 13 13 14 14 15 15 16 16 16
13 12 10 9 9 9 10 11 12 12 12 11 12 11 10 10 9 9 8 7 7 7 7 7 8 8 8 9 9 9 10 11 12 13 13 14 14 15 15 16 16 17 17 17
13 12 11 9 9 10 10 11 12 12 13 13 11 10 11 11 11 10 9 9 9 9 8 9 9 10 10 10 11 12 12 13 14 15 15 15 16 16 17 17 18 18 19 19
13 13 12 10 10 11 11 10 11 12 13 14 12 11 12 12 12 12 11 10 10 10 11 11 11 11 11 12 12 13 14 15 16 16 17 17 17 18 19 20 20 20 21 21
14 14 13 12 12 13 11 11 12 12 13 14 13 13 13 13 13 13 13 12 12 12 12 13 13 13 13 14 15 16 17 17 18 18 18 19 19 20 21 21 22 23 23 23
15 16 16 15 15 14 14 13 14 14 15 15 15 14 14 14 15 14 14 14 14 14 14 15 15 16 16 17 18 18 19 19 19 20 20 21 22 22 23 23 24 25 25 26
17 17 18 17 17 17 15 15 15 16 16 15 15 16 16 16 16 15 15 16 16 17 17 17 18 19 19 20 20 21 21 21 22 23 23 24 25 25 26 26 26 27 28 28
19 19 19 19 19 19 17 16 17 18 17 17 17 17 17 18 17 17 18 18 19 19 20 20 20 21 21 22 23 23 24 24 25 26 27 27 28 28 29 29 29 30 30 31
20 20 20 21 21 22 19 20 20 19 19 19 19 19 19 19 20 20 20 21 21 22 22 23 23 23 24 25 25 26 26 27 28 29 29 30 31 32 33 33 33 34 35 35
23 23 23 24 24 22 21 22 22 22 22 22 21 22 22 22 23 23 23 24 24 24 25 25 26 26 27 27 28 29 30 30 31 32 32 33 34 35 36 37 37 38 39 40
26 25 25 25 25 25 24 24 24 24 24 24 24 24 24 25 25 25 26 26 27 27 28 28 29 29 30 30 31 32 33 33 34 35 36 37 37 39 40 41 41 42 42 43
26 26 27 28 27 27 27 27 27 26 26 26 27 27 27 27 28 28 29 29 30 30 31 31 31 32 33 34 34 35 36 37 38 39 39 40 41 42 43 43 44 45 45 46
29 29 30 30 30 29 29 29 29 29 29 29 29 29 30 30 30 31 32 32 33 33 34 34 35 36 36 37 38 38 39 40 41 42 43 44 45 45 46 47 47 48 49 49

GEFSCGP_500_meanwind_144.txt.gz
Wind_Speed
16 17 18 19 19 19 20 20 20 19 19 18 16 14 13 11 11 11 10 9 8 7 7 7 7 7 7 7 6 5 4 3 3 3 4 4 5 6 7 8 9 10 10 11
15 16 17 19 19 19 20 19 18 17 18 17 16 15 13 11 10 10 10 10 9 8 8 8 8 8 7 7 6 5 4 3 3 3 4 4 5 6 7 8 9 9 10 11
14 16 17 19 19 19 18 18 16 16 16 16 16 15 13 12 11 11 10 10 10 9 9 9 8 8 8 7 5 4 3 3 2 3 3 4 5 5 7 7 8 9 10 11
15 16 17 18 18 17 17 16 16 15 14 14 14 14 13 12 11 11 10 10 10 9 9 8 8 9 8 7 6 4 3 2 2 3 3 4 5 5 6 7 8 9 10 11
15 15 16 16 17 16 16 17 15 15 14 13 13 13 13 12 11 10 10 10 9 9 10 9 9 9 8 7 5 4 3 2 2 3 3 4 5 5 6 7 8 9 9 10
15 15 15 16 17 17 16 17 17 15 15 13 13 13 13 11 11 10 10 10 9 9 9 9 9 9 8 6 5 4 4 3 3 3 3 4 4 5 6 7 8 8 9 10
14 14 15 16 17 17 17 16 16 15 14 13 13 12 11 11 11 10 10 10 9 9 9 9 9 9 7 6 5 5 4 3 3 3 3 4 4 5 6 7 7 8 9 10
13 14 15 16 16 17 17 16 15 14 12 12 12 11 11 11 11 11 10 10 10 9 10 10 9 8 7 6 5 5 4 3 3 3 4 4 5 5 6 7 7 8 9 10
13 14 14 15 16 17 16 15 13 12 12 12 11 10 11 12 12 11 10 10 10 10 10 10 9 8 7 7 6 5 4 4 4 4 4 5 5 6 6 7 7 8 9 10
13 14 15 16 16 15 15 14 13 12 12 11 11 10 11 10 10 10 10 10 10 10 9 10 9 8 7 7 6 6 5 5 5 5 5 5 5 6 6 7 7 8 9 10
13 15 16 16 16 15 15 14 13 12 11 11 11 10 10 10 9 9 9 10 10 10 10 10 9 9 8 7 6 6 5 6 6 6 6 6 6 7 7 7 8 8 9 10
13 14 15 15 16 15 14 13 12 11 11 11 10 10 11 10 10 10 9 10 10 10 10 10 9 8 8 7 7 6 6 6 6 6 6 6 7 7 7 7 8 9 10 10
12 13 15 16 15 14 14 13 12 12 11 12 11 10 10 10 11 10 10 9 10 10 10 9 9 8 8 7 8 7 7 7 7 7 7 7 7 7 8 8 9 10 10 11
12 12 12 13 13 13 13 13 12 12 10 10 10 9 10 10 10 10 10 9 10 10 9 9 9 8 8 8 8 8 8 8 8 8 8 8 8 8 9 9 10 11 11 12
13 12 13 13 13 12 12 13 13 12 10 9 8 8 9 9 9 9 9 9 9 10 9 9 9 8 8 8 8 8 9 8 8 9 9 9 9 10 10 11 12 13 13 14
14 14 14 14 13 12 12 12 12 12 11 11 10 9 9 9 9 9 10 9 10 10 9 9 9 9 9 9 9 9 9 9 10 10 10 11 11 12 12 13 14 15 15 15
16 15 15 15 14 13 12 12 13 12 12 12 11 10 10 10 10 10 10 10 10 11 10 10 10 10 10 9 9 10 10 11 12 12 12 12 13 14 14 15 16 16 17 18
16 16 15 15 15 14 12 12 12 12 12 12 11 11 11 11 12 11 11 10 11 11 11 11 11 11 11 11 11 12 12 13 13 14 14 15 15 16 17 17 18 19 19 20
17 17 17 17 16 14 14 13 13 13 13 13 12 12 12 12 13 13 13 13 13 13 13 13 13 13 13 13 14 15 15 16 16 16 17 17 18 19 19 20 21 21 22 23
19 19 19 19 18 16 14 14 14 15 14 14 13 13 13 13 14 14 14 15 15 14 15 15 15 16 16 17 17 18 18 18 19 19 20 20 21 21 22 23 24 25 25 26
21 21 21 21 20 18 17 17 17 16 14 15 14 14 14 15 15 16 16 16 16 16 17 17 18 18 19 20 20 21 21 21 21 22 22 23 24 25 25 26 27 28 28 29
23 23 23 23 23 20 19 19 19 18 17 17 16 16 16 17 17 18 18 18 19 19 19 20 20 21 22 22 23 23 23 24 24 24 25 26 27 28 29 30 30 31 32 32
24 24 24 25 24 22 22 22 21 21 20 19 19 19 19 19 19 20 20 21 21 21 22 22 23 23 24 24 24 25 26 26 27 27 28 29 30 31 32 33 33 34 35 36
25 25 26 26 25 24 24 24 23 23 22 22 22 22 21 21 22 22 22 23 23 23 24 24 25 25 26 26 27 27 28 29 30 30 31 32 33 33 34 35 36 37 38 39
26 26 26 26 26 26 25 25 25 25 24 24 24 24 24 24 24 24 24 25 25 25 26 26 27 27 28 29 29 30 31 31 32 33 34 35 35 36 37 38 39 40 41 42
27 28 27 27 27 27 27 27 27 27 27 27 27 26 26 26 27 27 27 27 28 28 29 29 29 30 31 31 32 33 33 34 35 36 37 37 38 39 40 41 42 43 44 45

GEFSCGP_500_meanwind_150.txt.gz
Wind_Speed
12 14 15 17 18 19 19 19 20 20 20 19 18 17 17 17 17 16 15 14 14 13 12 12 11 10 10 10 9 8 7 5 4 4 4 4 4 5 5 6 7 9 10 10
11 12 14 16 17 18 19 18 19 19 18 18 18 17 17 17 16 15 15 14 13 13 13 12 12 11 11 10 9 8 6 5 4 3 3 3 4 5 5 6 7 9 9 10
9 11 13 15 16 16 17 17 18 18 17 18 18 17 16 16 16 15 15 14 13 13 13 12 12 11 11 10 9 8 6 5 4 3 2 3 3 4 5 6 7 8 9 10
10 11 13 14 14 15 16 16 16 16 17 17 17 17 16 16 15 14 14 13 13 13 12 13 12 11 10 10 9 8 6 5 3 3 3 3 3 4 5 6 7 8 9 10
11 12 13 14 14 14 14 15 15 16 16 16 17 17 16 16 15 14 13 13 13 13 13 12 12 12 11 10 9 8 6 5 4 3 4 3 4 4 5 6 7 8 9 9
10 12 13 14 14 14 15 15 15 16 17 16 15 16 16 15 14 14 14 13 14 13 13 13 13 13 12 11 9 8 7 5 4 4 4 3 3 4 5 6 7 8 8 9
10 12 13 14 14 14 15 14 15 15 16 15 14 15 15 15 14 14 15 15 15 14 13 13 13 13 12 11 9 8 7 6 5 5 4 3 3 4 5 6 7 7 8 8
11 12 13 14 14 13 14 13 13 13 13 13 13 13 14 14 14 14 15 15 15 15 14 13 14 13 12 11 10 9 7 6 6 6 5 4 4 5 5 6 7 7 7 8
11 12 14 14 15 14 14 13 11 12 12 12 12 12 12 14 14 14 14 14 14 14 14 14 13 13 12 12 10 10 8 8 7 6 5 5 5 5 6 6 6 6 7 8
11 12 13 14 15 14 13 12 12 12 13 13 12 11 12 13 14 15 14 14 14 14 14 14 13 13 13 12 11 10 9 8 7 7 6 5 5 6 6 6 6 7 7 8
11 11 12 13 13 12 12 11 11 11 12 12 11 10 12 13 14 14 15 14 15 15 14 14 14 13 12 12 11 10 9 8 7 7 6 6 6 6 6 6 6 7 8 8
11 11 12 12 13 12 12 11 11 11 10 10 9 10 12 12 13 13 15 15 15 15 15 15 15 14 13 12 11 10 10 9 8 8 7 7 7 7 7 7 7 8 8 8
11 12 12 12 13 12 12 11 11 11 11 11 11 10 11 11 12 12 13 14 14 15 14 15 14 14 13 12 11 11 10 9 9 8 8 8 8 8 8 8 8 8 9 9
12 13 12 11 11 11 11 11 11 11 11 10 10 10 11 11 11 12 13 13 14 15 14 14 13 14 13 13 12 11 10 10 10 9 9 9 9 8 8 8 9 9 9 10
12 13 13 12 12 12 12 12 12 11 10 9 9 9 10 11 12 11 12 13 13 13 14 14 14 13 13 12 12 11 11 10 10 10 10 10 9 9 9 10 10 10 11 11
13 14 14 13 13 13 12 11 11 11 10 10 10 9 9 10 11 12 12 13 13 13 13 14 14 13 13 12 12 12 11 11 11 11 11 11 11 11 11 11 12 12 13 13
15 15 16 14 14 13 13 12 11 11 11 11 11 10 10 10 10 11 12 13 14 14 14 14 13 13 13 13 13 12 11 11 12 12 13 13 12 12 13 13 14 14 15 15
16 15 15 16 15 15 11 12 12 12 13 12 12 12 12 11 12 12 13 14 15 15 15 14 14 14 14 13 13 13 13 13 13 14 14 14 14 15 15 16 16 16 17 18
18 17 17 17 17 14 13 13 13 13 13 13 13 13 13 13 13 13 13 14 15 16 16 15 16 16 15 14 14 15 15 15 15 15 15 16 16 16 17 18 18 19 20 21
20 19 19 19 18 16 14 15 15 14 13 13 14 14 15 15 14 13 14 15 15 16 16 17 17 17 16 16 17 17 17 16 16 16 17 17 18 18 19 20 20 21 22 23
21 21 21 20 19 16 16 16 16 14 12 14 14 14 15 15 15 15 16 15 16 16 16 17 17 17 18 18 18 18 18 18 18 19 19 20 21 21 21 22 23 24 25 26
22 22 21 21 20 17 16 16 16 15 15 15 15 15 15 16 16 16 17 17 17 17 17 18 19 19 19 19 19 20 20 21 21 22 22 23 23 24 24 25 26 27 28 29
23 23 22 21 20 18 18 18 18 18 18 17 17 17 17 17 17 17 17 18 18 19 19 19 20 20 20 21 22 22 22 23 23 24 24 25 25 26 27 28 29 30 30 31
24 24 24 23 21 21 21 20 21 20 20 19 19 19 19 19 19 19 19 20 20 20 20 21 21 22 23 23 24 24 25 25 26 27 27 28 28 29 30 31 32 33 34 34
24 25 25 25 24 23 23 23 23 23 22 22 22 22 22 22 22 22 21 21 21 22 22 23 23 24 25 25 26 27 27 28 28 29 30 30 31 32 33 34 35 36 37 37
25 26 26 26 26 26 25 26 26 25 25 25 25 24 24 24 24 24 23 24 24 24 25 25 26 26 27 28 28 29 30 30 31 32 32 33 34 35 36 37 38 38 39 40

GEFSCGP_500_meanwind_156.txt.gz
Wind_Speed
9 10 11 13 14 15 16 17 18 18 19 19 18 17 17 18 17 17 17 17 17 17 15 14 14 12 11 10 10 9 7 7 6 5 5 4 4 3 4 4 5 5 6 6
7 9 11 12 13 14 15 16 18 18 18 18 18 17 17 17 17 16 16 16 16 16 15 14 14 13 12 11 10 9 8 7 6 6 5 4 3 3 3 3 4 5 6 6
7 9 11 12 13 13 14 15 16 17 17 18 17 17 16 17 16 16 16 17 16 16 15 13 14 14 12 12 10 10 8 7 6 6 5 4 3 3 3 3 4 4 5 6
7 9 11 12 13 13 14 15 16 16 17 17 17 17 17 16 17 17 17 17 16 16 15 14 14 13 13 12 11 10 9 7 6 6 5 3 2 2 2 3 3 4 5 6
7 9 11 12 13 13 13 14 15 16 17 17 16 17 16 17 17 17 18 17 16 15 15 14 13 14 13 12 11 10 9 8 7 6 5 4 2 2 2 2 3 4 5 6
7 9 10 12 13 13 13 13 14 15 15 15 16 16 16 17 16 17 17 17 16 16 15 15 14 14 14 13 12 10 9 8 7 7 6 4 3 2 2 2 2 3 5 6
7 9 10 11 12 13 13 13 13 14 14 14 14 15 16 16 16 16 17 17 17 16 15 15 14 14 14 14 13 11 10 9 8 7 6 5 4 3 3 3 3 3 4 5
8 9 10 11 12 12 12 13 14 13 13 13 13 14 15 15 16 16 16 17 17 17 16 16 15 14 14 14 14 12 11 10 9 8 7 6 5 4 4 3 3 3 4 4
9 10 10 11 11 12 12 12 13 13 12 13 13 13 13 15 16 16 16 17 17 16 15 16 16 15 14 14 14 13 12 11 10 9 7 6 5 5 4 4 4 3 4 4
9 10 11 12 12 12 11 12 12 12 11 11 12 12 13 14 16 17 17 16 16 15 15 16 15 15 14 15 15 14 13 12 10 9 8 7 6 6 5 4 3 3 3 3
10 10 10 11 12 11 11 11 12 11 11 11 11 11 12 14 16 16 17 16 15 15 15 15 16 15 15 15 15 15 14 12 11 10 9 8 7 7 6 5 4 3 3 4
10 10 10 11 11 11 11 11 11 11 11 11 11 11 12 14 16 17 17 17 16 16 16 15 15 15 15 15 15 14 14 12 11 10 10 9 8 8 7 6 6 5 5 5
10 10 10 11 11 11 11 11 11 11 10 10 10 11 12 13 15 16 17 17 17 16 16 16 16 16 16 15 15 15 14 13 12 11 10 10 9 8 8 8 7 7 7 7
11 11 11 12 11 10 11 10 10 10 11 10 10 10 11 13 14 15 16 16 16 16 16 16 16 16 16 16 16 16 15 14 13 12 12 11 10 10 9 9 9 9 8 8
11 11 11 12 11 11 11 11 10 10 10 11 10 11 12 13 14 15 16 16 16 16 16 17 17 17 17 16 16 16 15 14 13 13 12 12 11 11 10 10 10 10 9 9
12 13 12 12 12 12 12 11 10 10 10 10 11 11 12 13 14 15 15 16 16 16 16 17 18 18 17 17 17 17 16 15 14 14 13 12 12 12 11 11 11 11 11 11
13 14 14 14 13 13 12 11 12 11 10 11 11 11 13 13 14 14 15 16 16 17 16 17 17 17 17 17 17 17 16 15 15 14 14 14 13 12 12 11 11 11 11 11
14 14 15 15 15 15 13 12 12 12 12 11 11 12 14 14 13 13 13 14 15 16 16 17 16 17 17 17 17 17 17 16 16 15 15 15 14 13 13 13 13 13 13 13
15 15 15 15 16 15 14 13 13 13 12 12 12 13 14 14 13 13 13 14 15 16 17 17 17 17 17 18 17 17 17 17 17 16 16 16 15 15 14 14 14 14 15 15
17 17 16 15 15 15 15 15 14 13 13 13 13 14 14 14 13 13 13 14 15 15 16 17 17 18 18 18 18 18 18 18 17 17 17 16 16 16 16 16 16 16 16 17
18 18 17 16 16 15 15 16 16 14 13 13 13 14 14 15 14 14 13 14 14 15 16 17 18 18 19 19 19 19 18 18 18 18 18 18 18 18 18 18 18 18 18 19
19 19 19 18 17 15 16 16 17 16 16 15 14 14 15 15 15 15 15 15 16 16 17 18 18 19 19 19 19 19 19 19 20 20 19 19 20 20 20 20 21 21 21 22
20 20 20 20 19 18 17 18 19 18 17 17 16 16 16 16 16 17 17 17 18 18 19 19 19 19 20 20 20 20 20 20 20 21 21 22 22 22 22 23 23 23 24 25
22 21 22 22 21 21 20 19 19 19 19 18 18 18 18 18 18 18 18 18 19 19 19 19 20 20 21 21 21 21 22 22 22 23 23 24 24 25 25 25 26 27 28 29
23 23 23 23 23 22 22 21 21 20 20 20 20 20 20 19 19 18 18 18 19 20 20 20 21 21 21 22 22 23 23 24 24 25 25 26 27 27 28 28 29 30 31 32
25 25 25 25 25 24 23 23 23 23 22 22 22 21 21 21 21 20 20 20 20 21 21 22 22 22 23 23 24 24 24 25 26 26 27 28 29 30 31 31 32 33 34 35

GEFSCGP_500_meanwind_162.txt.gz
Wind_Speed
7 8 9 10 10 11 13 14 14 14 15 16 15 15 16 15 15 14 14 13 13 13 12 12 11 12 11 10 10 8 8 6 5 4 3 3 3 4 4 5 6 7 7 8
6 7 7 8 9 11 13 14 14 13 14 15 14 15 16 15 14 14 14 14 14 14 12 12 11 11 11 10 9 8 7 6 5 3 3 3 3 3 4 5 5 6 7 7
4 6 7 8 9 10 11 13 13 13 13 13 14 15 15 14 14 14 14 14 14 13 13 12 12 11 11 10 9 8 7 6 5 4 3 3 3 3 4 4 5 5 6 6
4 6 7 8 9 10 11 12 12 12 13 13 13 13 14 14 14 13 13 14 13 14 13 13 12 12 11 10 9 8 7 6 6 6 5 4 3 3 3 4 4 5 6 6
5 6 7 7 9 9 10 11 11 11 11 12 12 13 13 13 14 13 13 14 14 14 13 13 13 13 12 11 10 9 8 7 6 6 6 4 3 3 3 3 3 4 5 6
4 6 6 7 8 9 10 11 11 11 10 11 11 13 13 13 13 13 13 13 14 14 14 14 14 13 13 12 11 10 9 7 6 6 6 5 4 4 3 3 3 3 4 5
4 5 6 7 8 9 10 10 10 10 11 9 10 13 13 13 14 14 14 14 14 14 14 14 13 13 13 13 11 10 10 8 7 7 6 6 5 4 3 3 3 3 3 4
5 6 7 7 8 9 9 9 9 8 7 7 9 12 12 13 14 14 14 14 15 15 15 14 14 13 13 13 12 11 10 9 8 8 7 6 6 5 4 3 3 3 3 4
6 7 7 8 9 9 9 10 8 8 8 8 10 11 11 11 13 14 13 14 14 15 14 14 14 14 14 13 13 12 11 10 9 9 8 7 6 5 5 4 3 4 4 4
8 8 8 8 9 10 10 10 10 11 10 10 10 10 10 10 12 14 13 14 14 15 15 15 15 15 14 14 14 14 12 11 10 9 8 8 7 6 6 5 5 5 5 5
9 8 8 8 9 9 10 11 11 11 11 10 10 10 11 11 11 13 14 14 15 15 14 15 15 15 14 14 14 13 12 12 11 10 9 9 8 7 7 7 6 5 5 5
10 9 8 9 8 9 11 12 13 14 13 10 10 11 11 11 12 13 15 15 16 16 15 14 14 14 14 14 14 13 13 12 12 11 10 10 10 9 8 8 7 6 7 6
11 10 8 9 9 9 10 12 13 14 14 12 11 11 12 12 11 12 14 15 16 16 16 16 15 14 14 14 14 14 14 13 13 12 11 11 11 10 10 10 9 8 8 8
12 11 10 10 9 9 10 12 12 13 13 13 13 12 12 11 12 13 14 15 16 16 16 16 16 15 14 15 15 15 15 15 14 13 12 12 12 11 11 11 10 9 9 9
13 13 12 12 12 12 12 12 13 13 14 14 14 14 13 13 14 14 14 15 16 16 16 17 17 16 15 15 15 16 16 16 15 14 13 13 14 13 12 12 11 10 9 9
13 13 13 12 12 13 13 12 12 13 14 15 15 15 14 14 14 14 15 16 16 15 15 16 16 16 16 16 16 16 16 16 16 15 15 15 15 14 14 13 11 10 10 10
13 14 14 13 12 13 13 13 12 13 14 14 14 14 14 14 14 14 14 15 16 16 15 15 16 17 16 16 17 17 17 17 17 16 16 16 16 15 14 14 13 12 11 11
14 14 14 13 12 12 11 13 13 13 13 13 14 13 12 13 14 13 13 14 16 16 16 16 17 17 17 17 17 18 18 18 18 17 17 17 16 16 15 15 14 13 13 12
15 15 15 14 13 13 12 12 13 13 13 14 14 13 13 13 13 13 14 14 15 16 17 17 17 17 17 18 18 19 19 18 18 18 18 18 17 16 16 16 15 15 14 14
15 16 17 15 15 14 13 13 13 13 14 15 14 14 13 14 14 12 13 14 15 16 17 17 17 17 18 19 19 19 18 18 18 18 19 18 17 17 17 17 16 16 16 16
16 16 16 16 16 15 15 15 15 15 15 15 15 15 14 14 14 14 14 13 13 14 16 17 17 17 17 17 17 17 17 18 19 19 18 18 18 18 18 17 17 17 18 18
17 16 16 16 17 17 16 16 17 17 17 16 15 16 16 16 15 15 14 15 14 14 14 16 17 16 17 17 17 18 18 18 19 18 18 18 18 18 18 18 19 19 19 20
18 18 18 19 19 18 18 18 19 19 18 17 16 16 17 16 16 15 15 16 16 15 16 16 16 16 16 17 17 18 19 19 19 18 19 19 19 20 20 20 21 21 22 22
21 20 21 21 20 19 19 19 19 19 19 18 18 18 18 17 17 17 17 17 17 17 17 17 17 17 18 18 19 19 19 19 20 19 19 20 21 21 22 22 23 23 24 25
24 24 24 24 23 22 22 21 20 20 20 20 19 19 19 19 19 19 19 19 19 19 20 20 20 20 20 20 20 21 21 21 21 21 21 22 22 23 23 24 25 26 26 27
26 26 26 25 24 25 24 23 23 23 22 22 22 21 21 21 21 21 21 21 22 22 22 22 22 22 22 22 23 23 23 23 23 24 24 24 24 25 25 26 27 28 29 30

GEFSCGP_500_meanwind_168.txt.gz
Wind_Speed
5 6 6 7 9 9 9 9 10 11 12 12 13 12 13 12 12 13 12 12 12 12 12 12 12 11 11 10 10 8 7 6 6 5 5 4 3 3 2 2 4 5 5 6
5 5 7 8 9 10 9 9 10 11 11 12 13 13 12 13 13 13 12 12 13 13 12 12 12 12 12 12 11 9 8 7 6 6 5 4 3 3 2 2 3 4 5 5
4 4 6 7 8 9 9 10 9 10 10 11 12 13 12 13 13 13 12 13 13 13 13 13 13 13 12 11 11 9 8 7 7 6 6 5 4 3 2 2 3 4 4 5
4 4 6 6 8 9 9 10 10 9 9 10 11 11 11 12 11 11 12 13 13 14 14 14 14 13 12 12 12 10 9 8 8 7 6 5 4 3 2 1 2 3 4 4
4 4 5 6 8 8 9 9 10 9 9 9 10 11 11 11 12 11 12 13 13 13 14 13 14 14 14 13 12 11 10 9 8 8 6 5 4 3 2 2 2 2 3 4
4 5 4 5 7 7 8 8 9 9 9 8 9 11 10 10 12 12 12 12 13 13 14 13 14 15 14 13 12 11 10 10 9 8 7 5 5 4 3 2 1 1 2 3
5 5 5 6 6 7 7 7 8 8 8 8 9 10 10 10 11 12 11 12 12 13 14 14 14 15 15 14 13 12 11 11 10 9 8 6 5 5 4 3 2 2 1 1
5 5 5 5 7 7 7 7 7 8 8 7 8 9 9 11 11 11 11 11 12 13 14 14 13 14 15 14 14 13 12 11 10 9 8 7 6 5 4 4 4 3 2 2
5 5 4 5 6 7 7 7 7 8 8 7 8 8 9 10 10 10 11 11 11 13 14 14 13 14 15 15 15 14 13 11 11 10 9 8 6 5 5 5 5 4 4 3
5 6 6 5 6 7 7 7 8 8 8 8 8 8 8 10 10 11 11 11 11 13 14 14 14 14 14 15 15 15 14 12 11 11 10 9 7 6 6 5 5 5 5 4
7 7 7 7 7 7 8 9 9 8 8 9 9 9 10 10 10 11 11 11 12 12 13 14 14 14 15 15 15 15 14 13 11 11 11 10 9 8 7 6 5 5 6 5
7 8 9 8 9 10 10 9 10 10 10 10 9 10 11 11 11 10 10 11 12 13 14 14 15 15 15 15 15 16 15 13 12 12 12 11 10 9 8 8 7 7 7 7
9 9 10 10 10 10 11 10 11 11 11 11 10 9 10 10 11 11 11 11 12 12 14 15 15 15 15 15 15 16 15 14 13 13 12 12 11 10 10 9 9 9 9 8
11 11 10 10 9 10 10 11 12 12 12 12 10 9 9 10 11 12 12 11 11 12 13 14 15 14 15 15 15 15 16 15 14 14 13 12 12 11 11 10 10 10 10 10
10 10 10 10 10 10 11 11 12 14 14 13 12 10 10 10 11 12 12 12 11 12 13 14 15 15 14 15 15 15 16 15 15 14 14 13 12 11 12 11 11 11 11 11
12 12 11 11 12 12 12 12 13 14 14 13 13 12 11 11 11 12 11 12 12 12 13 14 14 14 15 15 15 15 16 16 16 15 14 13 13 12 12 12 12 12 12 12
12 13 13 12 12 12 11 11 12 13 13 13 12 11 12 12 12 12 11 12 13 13 14 15 16 16 15 15 15 15 16 16 16 16 15 15 14 14 14 13 14 14 14 14
12 12 13 13 13 12 10 12 11 12 11 12 12 11 12 12 12 13 12 12 13 14 15 16 17 17 17 17 16 16 16 16 17 17 17 16 16 16 15 15 15 15 15 15
13 13 13 13 13 12 12 11 12 12 11 11 12 12 12 12 12 12 12 12 13 13 14 15 17 17 17 17 17 17 17 17 16 16 17 17 17 17 17 17 17 17 17 17
15 15 15 14 14 14 13 13 13 13 12 11 11 12 12 12 12 12 12 12 12 13 13 14 16 17 18 17 17 17 17 17 17 17 18 18 18 18 18 18 17 17 17 17
17 16 16 16 16 14 14 15 14 14 12 12 11 12 12 12 12 13 13 13 12 12 13 14 15 16 18 18 18 18 18 18 18 18 19 19 19 19 18 18 18 18 18 18
17 17 17 17 16 15 15 15 15 14 14 13 13 13 13 13 13 14 13 14 14 14 14 14 15 16 17 18 18 19 18 18 19 19 19 19 19 19 19 19 20 20 20 20
19 18 18 18 17 16 17 17 16 16 15 14 13 13 14 14 14 14 14 14 15 15 15 15 15 16 17 17 18 19 19 19 18 19 19 19 20 20 20 21 21 22 21 21
20 20 20 19 18 17 17 17 16 16 16 15 15 15 15 16 15 16 16 15 15 15 16 16 16 16 17 17 17 18 19 19 19 19 20 20 21 21 21 21 21 21 22 22
22 22 21 20 19 19 19 18 18 17 17 17 16 16 16 16 17 17 17 17 16 16 17 17 17 18 18 18 19 19 20 20 20 21 21 21 22 22 22 22 22 23 23 24
23 23 22 21 20 20 20 20 19 18 18 18 18 18 17 17 17 17 18 18 17 18 18 19 19 19 19 20 20 21 21 21 21 22 22 23 24 24 24 24 25 25 26 27

GEFSCGP_500_meanwind_174.txt.gz
Wind_Speed
6 6 7 7 8 9 10 11 11 12 11 12 12 13 15 16 16 16 15 14 15 15 14 14 14 13 13 13 11 10 9 8 7 7 6 5 4 4 4 4 4 5 5 5
7 7 7 8 8 9 10 11 11 12 12 12 13 13 15 16 17 16 16 16 16 15 15 15 15 14 14 13 12 11 10 9 7 7 7 6 5 4 3 3 4 4 4 4
7 6 7 8 9 9 9 10 11 12 12 13 13 13 13 15 16 16 16 16 16 16 15 15 15 15 15 14 13 12 10 10 8 7 7 6 5 4 3 3 3 3 3 4
6 7 7 8 9 9 10 10 10 11 11 12 12 12 13 14 15 15 15 17 16 16 16 16 16 16 16 15 14 13 11 10 9 8 7 6 6 5 4 3 3 3 3 3
6 7 7 8 8 9 10 10 10 10 11 11 12 12 13 14 14 14 15 16 16 17 16 16 16 17 17 15 15 13 13 11 10 8 7 7 6 5 5 3 3 2 2 2
6 6 7 7 8 8 10 10 10 10 10 10 11 11 12 13 13 14 15 15 16 16 17 17 17 17 17 16 15 14 13 11 10 9 8 7 7 6 5 4 3 3 2 2
5 5 6 7 7 7 8 10 10 10 10 10 10 11 11 12 13 14 14 14 15 16 17 16 17 17 17 16 15 15 13 12 11 10 9 8 7 7 6 5 4 4 3 2
5 5 5 6 6 7 8 9 10 10 10 9 10 10 11 13 13 14 14 14 15 16 16 16 17 18 17 17 16 16 14 13 11 11 10 9 7 7 7 6 5 4 4 3
6 5 5 6 6 7 8 9 9 9 9 9 9 9 10 12 13 14 14 14 15 15 16 16 16 17 17 17 17 17 16 14 13 12 11 9 8 8 7 7 6 5 4 4
7 7 6 6 7 7 8 8 9 9 9 9 8 8 10 12 13 13 14 15 15 15 15 15 16 18 18 18 18 17 16 15 14 13 11 10 9 8 8 8 7 5 5 4
8 7 7 8 8 8 9 9 9 9 10 10 9 8 9 10 12 12 14 14 15 15 15 16 17 17 18 18 18 18 16 15 14 13 12 11 11 9 8 8 7 6 6 5
8 8 7 8 8 9 10 10 10 10 10 10 10 9 10 10 11 12 14 14 14 14 15 16 17 18 18 18 18 17 16 16 15 14 13 13 11 10 9 9 8 7 7 7
9 9 8 9 9 10 11 10 10 11 11 10 10 9 10 11 12 13 13 14 14 14 15 16 17 18 19 18 17 17 15 16 16 15 14 14 12 11 10 10 9 9 9 9
10 10 10 10 9 10 10 10 11 11 11 10 10 10 11 12 14 14 14 14 14 14 15 16 18 18 18 18 18 17 15 16 17 17 16 15 14 12 12 12 11 10 10 10
12 11 10 10 11 11 10 10 10 10 9 9 9 10 11 13 14 15 15 15 15 15 15 16 17 18 18 18 18 17 16 16 16 17 16 16 15 14 13 13 13 12 12 12
12 12 11 11 12 12 11 11 10 10 9 9 9 9 11 12 13 14 15 15 16 16 16 16 16 17 18 19 19 18 18 17 16 16 17 17 16 15 15 15 14 14 14 14
13 12 12 12 13 12 11 11 12 11 10 10 10 10 11 12 13 14 14 15 16 16 16 16 16 16 17 17 18 19 19 18 17 17 17 17 17 17 16 16 16 16 16 15
14 13 13 13 13 13 11 12 12 13 12 12 11 11 12 12 14 15 15 15 16 16 16 16 16 16 16 17 17 18 19 19 18 18 18 18 18 17 17 17 17 17 17 17
16 15 14 15 14 13 12 12 13 13 12 12 12 12 12 13 13 14 15 14 15 16 16 16 16 16 16 17 18 18 19 18 18 17 17 18 18 17 17 18 18 18 18 17
17 16 16 15 15 13 12 13 13 13 13 13 12 12 13 13 13 13 15 15 15 16 15 16 17 16 16 17 18 18 18 18 18 18 18 18 18 19 19 19 19 19 18 18
17 17 17 16 15 13 13 13 13 14 13 13 13 13 13 12 12 13 14 15 15 15 16 16 16 16 16 17 18 18 18 19 19 19 19 19 19 20 20 20 21 21 20 21
18 18 17 17 15 14 14 13 13 13 14 14 14 14 14 13 13 14 14 15 15 16 16 17 17 17 17 17 17 18 19 19 20 20 21 20 20 21 21 21 22 22 22 22
18 17 17 16 16 15 15 15 14 14 15 15 15 15 15 15 14 15 15 15 16 16 17 17 17 17 17 17 18 19 20 20 21 22 22 22 22 23 22 22 22 23 23 23
20 18 18 17 16 17 17 17 16 16 15 15 15 15 15 15 15 16 16 17 17 17 17 17 18 18 18 18 19 20 21 22 22 23 24 24 24 23 23 23 23 23 23 23
21 20 19 18 17 18 18 18 18 18 17 16 16 15 15 15 16 17 17 17 17 18 18 18 19 19 19 20 20 20 21 22 23 23 24 24 24 24 24 24 24 23 24 24
22 22 21 20 19 19 18 19 19 19 19 17 16 16 17 17 17 17 17 17 17 17 18 19 19 19 19 19 20 20 21 22 23 24 24 24 24 24 24 25 25 25 26 27

GEFSCGP_500_meanwind_180.txt.gz
Wind_Speed
6 7 8 9 10 10 10 11 12 13 13 14 14 15 17 17 16 16 16 17 17 16 16 16 16 16 15 14 14 12 12 11 10 9 9 8 7 6 5 5 5 4 4 4
6 7 8 9 10 10 11 11 12 13 13 12 13 14 15 16 16 16 16 16 16 17 17 17 17 17 16 15 14 13 12 11 10 10 9 8 7 6 6 5 4 4 4 5
6 7 8 8 9 9 10 11 12 12 12 13 13 13 14 15 16 16 16 16 17 17 17 17 17 17 16 15 15 14 13 12 11 10 9 9 7 7 6 5 4 4 4 4
7 7 7 7 8 9 10 10 11 12 12 13 13 13 14 14 15 17 17 17 17 17 17 18 18 18 17 16 16 15 14 13 11 11 10 9 8 7 7 6 5 4 3 3
6 6 7 7 8 8 10 10 10 10 11 12 13 12 13 14 15 16 16 17 18 18 18 18 18 18 17 17 16 15 14 14 12 11 10 9 9 7 7 6 5 4 4 3
7 6 7 7 8 8 9 9 10 10 10 11 12 12 12 13 14 15 15 16 17 18 18 18 18 18 18 17 16 15 14 14 13 12 11 10 9 8 8 7 6 5 5 4
6 6 7 7 7 8 9 9 9 10 10 11 11 12 13 13 13 14 14 15 17 18 18 18 18 18 18 17 16 16 14 14 14 13 12 11 10 9 9 8 7 6 6 5
6 6 7 7 8 9 10 10 10 9 10 10 11 12 13 13 13 13 14 15 15 17 17 17 18 18 18 18 17 16 15 14 14 14 12 12 10 10 9 8 7 7 6 5
7 7 7 8 8 9 10 10 10 11 10 9 10 10 11 12 12 12 13 14 15 15 16 16 17 17 17 17 17 16 16 15 15 15 14 12 11 11 10 9 8 7 7 6
7 8 7 8 8 9 9 9 11 10 10 9 9 9 11 12 13 13 13 14 15 15 15 16 17 17 17 17 17 17 17 16 15 15 14 13 12 12 12 10 9 9 8 7
8 8 8 8 8 8 9 9 9 10 10 10 9 10 11 12 13 14 14 14 14 14 14 14 15 17 18 18 17 18 17 16 16 15 15 14 13 13 12 11 9 9 9 9
8 9 9 9 9 9 9 10 10 10 10 10 10 10 11 12 13 13 13 13 14 14 14 14 15 16 17 18 17 17 17 16 16 16 16 15 14 13 13 12 11 10 10 10
10 9 8 9 10 10 10 10 11 11 12 11 11 11 12 12 12 13 13 13 14 15 14 15 15 16 17 18 18 17 17 17 17 16 16 16 15 15 14 13 12 12 11 10
11 10 10 10 10 10 10 10 11 11 11 11 11 11 12 13 13 13 13 13 14 15 15 15 15 16 17 17 18 17 18 17 17 16 16 16 16 15 15 14 14 13 12 11
12 11 10 11 10 10 10 10 10 11 11 11 11 12 12 13 13 13 13 14 14 14 14 15 15 15 17 17 17 18 18 18 17 16 16 16 16 16 16 16 15 13 13 13
13 12 12 12 11 11 11 11 12 12 12 12 12 13 14 14 14 13 13 14 14 14 14 15 15 15 16 16 17 17 18 18 17 16 16 16 16 16 16 16 15 15 15 14
13 13 12 12 13 12 12 12 12 12 12 12 12 12 14 13 13 14 14 15 15 14 14 15 16 16 16 16 17 17 18 18 17 17 16 17 17 16 16 16 16 16 15 15
15 14 14 14 13 13 12 12 12 12 12 12 13 13 14 14 14 14 15 15 15 15 14 14 16 17 16 17 18 18 18 18 18 18 18 17 17 17 17 17 17 16 16 16
16 16 15 14 14 14 13 12 12 12 12 13 13 14 14 14 14 15 15 15 15 15 15 15 15 16 16 16 17 18 18 18 18 18 17 18 17 17 18 18 18 18 18 17
17 17 16 16 15 14 14 13 13 13 12 13 14 14 14 14 14 14 15 15 16 16 16 16 16 17 17 17 17 17 17 18 18 18 17 18 18 18 18 19 19 19 18 18
18 18 18 17 17 15 15 14 13 14 13 14 14 14 14 14 15 15 15 15 16 16 17 17 17 17 17 18 17 17 17 17 17 18 18 18 18 19 19 19 19 19 19 19
19 19 19 18 17 16 15 15 15 15 15 14 14 15 15 15 15 15 14 15 16 16 17 16 17 17 18 18 18 17 17 17 18 18 19 19 18 18 18 18 18 19 20 20
19 19 19 18 17 17 16 15 15 16 15 15 15 15 15 15 15 15 15 15 15 16 17 16 17 17 18 18 18 18 18 17 18 18 18 19 19 19 19 19 20 20 21 22
20 20 19 19 18 17 17 16 16 16 16 15 15 15 15 15 15 16 15 15 15 15 17 17 17 17 17 18 18 18 18 18 18 19 19 20 21 21 21 21 22 22 22 22
19 20 20 20 19 19 18 17 17 17 16 16 16 15 16 16 16 16 15 15 15 16 16 17 18 18 18 19 19 19 19 19 19 20 20 21 22 23 23 23 23 24 24 25
21 21 21 21 20 20 19 19 18 18 18 17 16 16 16 17 16 16 16 15 16 16 17 18 19 18 19 19 20 20 21 20 21 21 22 23 23 24 25 25 26 26 26 26

GEFSCGP_500_meanwind_186.txt.gz
Wind_Speed
7 7 8 9 9 10 10 11 11 12 12 12 13 14 14 14 14 14 14 15 14 13 14 14 13 12 11 11 11 11 10 10 9 9 8 8 7 6 6 6 6 6 6 6
7 7 8 8 9 10 11 11 11 12 12 13 14 15 15 14 14 14 14 15 15 14 14 14 14 13 12 11 11 11 10 9 9 9 8 8 8 7 7 7 7 6 6 6
7 7 8 9 10 10 11 12 12 12 12 13 14 15 15 14 14 14 15 15 15 15 14 14 14 13 13 12 11 11 10 9 9 9 9 8 8 7 7 7 7 7 6 6
8 8 8 8 9 10 11 11 11 11 12 13 14 13 14 14 14 15 15 15 15 15 14 13 14 14 14 13 12 12 11 10 10 10 10 9 8 8 8 7 7 7 7 6
8 8 8 8 9 9 11 11 11 11 12 12 13 13 13 14 14 14 14 14 14 15 15 15 14 15 15 14 13 13 12 12 11 11 11 10 9 8 8 8 7 7 7 7
8 9 8 8 9 9 10 11 10 10 11 12 12 13 12 13 13 13 13 14 14 15 16 16 16 16 16 15 14 13 12 12 12 12 11 10 10 9 8 7 7 7 7 7
8 8 8 8 9 10 10 9 9 9 10 10 11 12 13 13 13 13 14 14 14 14 16 16 16 16 16 15 15 14 13 12 12 11 11 10 9 9 9 8 7 6 6 7
8 9 9 8 8 9 9 9 9 9 9 9 11 13 13 13 14 14 14 14 15 15 15 16 15 16 16 15 15 14 14 13 12 11 10 10 10 10 9 8 7 7 6 7
9 9 9 8 8 10 10 10 9 10 11 11 12 13 13 14 14 13 13 14 14 15 14 14 14 14 15 16 15 14 13 12 12 12 11 11 10 10 10 9 8 8 8 7
10 10 10 9 9 10 11 11 11 11 11 11 11 12 12 12 13 13 12 13 13 13 14 14 13 13 14 15 15 14 13 13 13 13 12 11 11 11 11 10 10 9 9 8
11 10 9 10 9 9 10 11 12 11 11 11 11 11 12 12 12 12 12 12 12 12 13 14 15 14 15 15 15 14 14 13 13 13 12 12 12 12 12 11 10 9 9 9
12 10 10 11 10 10 10 12 12 12 11 11 12 11 11 11 11 11 11 12 12 12 13 13 14 14 15 15 15 15 14 14 14 13 13 13 12 12 12 12 11 11 10 9
13 12 11 11 11 11 11 12 12 13 13 12 12 11 10 11 11 12 12 12 13 13 13 13 12 13 14 14 14 15 15 15 14 14 13 13 13 12 13 13 12 12 11 11
13 13 13 13 12 11 12 12 13 12 13 13 13 12 10 11 11 12 12 12 12 13 13 13 13 14 14 14 15 15 15 15 15 14 14 14 13 13 13 14 13 12 12 12
14 14 14 14 13 13 13 13 14 14 13 13 13 13 11 13 12 13 12 12 12 12 13 13 13 13 14 14 15 16 16 16 16 15 14 14 14 14 14 14 13 13 13 13
15 15 14 13 14 14 14 13 13 14 14 14 14 13 12 14 14 14 13 13 13 13 13 13 13 13 13 14 15 15 16 16 16 15 15 15 14 14 14 14 13 14 14 14
15 15 15 14 14 15 16 14 14 14 14 14 14 13 14 14 14 14 14 14 14 14 14 14 14 13 14 14 15 15 15 15 16 16 15 16 15 14 14 14 15 15 15 14
15 16 16 16 15 16 14 13 13 14 14 14 14 15 15 15 14 14 14 14 14 14 14 15 15 15 15 15 15 15 16 16 16 16 15 15 15 15 15 15 16 16 15 15
17 17 17 16 16 16 15 14 14 15 15 14 14 16 17 16 16 14 14 14 14 14 15 16 16 16 15 15 15 16 16 17 16 16 16 16 15 15 15 15 16 16 16 16
18 18 18 17 17 17 16 15 14 15 16 15 15 15 16 16 17 15 13 14 14 15 15 15 16 16 16 16 16 16 16 16 17 16 16 16 16 16 15 15 15 15 15 16
18 18 18 18 18 18 17 16 15 15 16 15 16 15 15 16 16 15 15 14 14 15 15 15 16 16 17 16 16 16 17 17 17 17 16 16 16 16 16 16 15 16 16 17
18 19 20 20 20 20 18 17 16 16 16 16 17 17 17 17 16 16 16 15 14 15 15 15 15 16 16 16 16 16 16 16 16 17 17 17 17 16 16 16 17 17 18 19
20 20 20 20 20 18 18 17 17 18 17 17 17 17 17 16 17 17 17 16 16 16 15 15 15 16 17 17 17 17 17 17 17 17 18 18 17 17 17 18 19 19 19 20
22 20 21 21 20 19 18 17 17 18 18 17 17 16 16 17 17 17 17 17 17 16 16 16 16 17 18 18 18 17 17 17 18 18 19 19 19 19 18 19 19 20 20 20
23 22 21 21 21 20 19 18 18 18 17 17 17 17 17 17 16 16 17 17 17 17 16 17 17 18 19 18 19 18 18 18 18 19 20 20 20 20 20 20 21 21 22 22
25 24 23 22 22 22 21 19 19 19 18 18 17 17 17 16 16 17 17 17 17 17 17 17 17 17 18 18 18 18 19 19 19 19 19 20 20 21 21 21 22 22 23 24

GEFSCGP_500_meanwind_192.txt.gz
Wind_Speed
10 9 9 8 9 10 10 10 10 10 11 10 11 11 11 11 11 11 10 11 11 11 11 10 9 9 11 11 11 11 11 10 10 9 9 9 9 8 7 6 6 6 5 5
10 9 9 9 10 10 10 11 11 11 11 11 11 11 12 11 11 11 11 11 11 11 11 11 11 11 12 12 12 12 12 11 10 9 9 9 9 8 8 7 7 6 6 6
9 9 10 10 10 10 10 10 11 11 12 12 11 11 11 11 11 11 10 10 11 12 13 12 12 12 13 13 12 12 12 12 11 10 9 9 9 9 8 7 7 6 6 6
9 10 10 10 10 10 9 10 11 11 11 12 12 11 11 12 12 12 11 11 11 11 13 13 13 13 13 14 13 12 12 12 11 11 10 9 9 9 9 8 7 7 6 6
9 9 9 10 9 10 10 11 11 10 11 12 13 12 11 12 11 12 12 12 12 12 13 13 13 13 13 14 14 13 13 13 12 11 11 10 9 9 8 7 6 6 6 6
9 9 9 9 9 9 10 11 11 10 10 11 11 12 11 11 10 11 12 12 13 13 13 13 13 13 13 14 14 14 14 14 13 12 12 11 10 9 8 7 7 6 6 5
10 10 10 9 9 9 10 11 11 11 10 10 10 11 10 11 11 10 11 12 12 13 14 14 14 14 14 14 14 15 15 14 14 13 12 12 10 9 9 8 7 6 5 5
10 11 10 10 10 9 10 10 11 11 10 10 10 11 9 9 11 11 11 12 12 13 13 13 14 14 14 15 15 15 15 14 14 13 13 12 11 10 9 9 8 7 6 6
10 10 10 10 9 9 10 10 10 12 11 10 9 10 9 9 10 11 11 12 12 13 13 13 14 14 14 15 16 16 14 14 14 14 13 13 12 10 9 9 9 8 7 7
10 10 11 10 10 11 11 11 11 12 12 10 9 9 9 9 10 10 10 11 12 12 13 13 14 15 14 14 15 16 15 14 13 13 13 13 12 11 10 9 9 8 8 7
11 11 11 12 12 12 12 13 12 12 12 12 11 9 8 7 8 9 10 10 11 12 13 13 14 15 15 14 15 15 15 15 13 13 13 13 12 11 10 10 8 9 9 8
11 12 11 11 12 12 12 12 12 12 11 11 12 11 10 9 8 8 9 9 10 11 12 12 14 15 15 15 15 15 14 14 13 13 13 13 12 11 11 10 10 9 9 9
13 13 13 12 13 13 12 11 12 12 13 12 12 11 11 11 9 9 10 9 9 11 12 13 13 15 15 16 15 16 15 14 13 13 13 13 12 11 11 11 11 11 10 11
14 14 14 13 12 13 13 12 12 12 12 12 11 10 10 10 10 9 9 10 9 10 11 13 13 14 15 16 16 16 16 15 15 14 14 14 13 12 12 12 12 12 12 11
15 14 14 14 13 13 13 13 13 13 12 11 10 10 10 10 10 10 10 9 10 10 10 12 13 13 13 14 15 15 16 16 15 15 15 15 15 14 14 13 12 12 12 12
15 14 14 14 14 14 14 13 13 13 13 12 11 10 10 11 12 12 11 11 10 10 10 11 11 11 12 12 14 15 15 16 16 16 16 16 16 15 15 14 13 13 12 12
16 15 15 15 14 14 14 13 13 12 13 13 12 11 11 11 11 12 12 11 11 11 11 11 12 12 12 12 13 14 14 16 16 16 16 16 16 16 15 16 15 14 13 13
17 16 16 16 15 16 13 12 13 13 12 12 12 11 12 12 12 12 12 12 11 12 12 12 13 13 13 13 13 14 14 15 16 17 17 17 17 16 16 16 15 14 14 14
18 18 17 17 17 15 14 13 13 13 13 13 13 13 13 12 13 13 12 12 12 13 12 13 13 13 14 14 14 15 15 15 16 16 17 17 17 16 16 16 16 16 16 16
19 19 19 17 17 16 14 13 13 13 13 13 13 13 12 12 13 13 12 12 12 12 13 13 13 14 14 14 15 15 15 15 16 16 16 17 18 18 18 18 17 17 17 17
20 20 19 18 17 15 14 14 14 13 12 12 13 13 13 12 12 12 12 12 11 12 12 13 13 14 14 15 15 15 16 16 16 17 17 18 19 19 19 18 18 17 17 18
20 19 19 18 18 16 14 14 14 13 13 14 13 13 14 13 13 13 12 12 12 12 13 13 14 14 15 16 16 16 16 17 17 17 18 18 19 19 19 19 18 18 18 18
22 20 18 17 16 15 15 15 14 13 14 14 14 14 14 14 14 13 13 13 13 13 14 14 14 15 15 15 15 16 17 17 18 18 18 18 19 19 19 19 18 18 19 19
23 22 21 19 17 16 16 16 15 14 15 15 15 15 14 15 15 15 14 14 14 14 15 15 15 16 16 16 16 16 17 18 19 19 19 20 20 19 19 19 20 19 19 19
23 22 21 20 18 17 17 17 16 16 16 15 15 15 14 15 16 16 15 15 15 15 16 17 16 16 17 17 16 17 17 18 19 20 20 21 21 21 21 20 20 21 21 20
22 22 21 20 19 19 18 18 17 16 16 15 16 15 15 15 15 15 15 16 16 16 17 17 17 17 17 17 17 18 18 19 19 19 20 21 22 22 23 22 22 22 22 22

GEFSCGP_500_meanwind_198.txt.gz
Wind_Speed
12 12 11 11 11 12 12 12 12 12 12 12 12 13 13 12 12 13 13 13 13 13 13 13 13 13 14 14 14 14 14 13 12 11 11 10 10 11 10 9 9 9 8 8
13 13 12 12 12 12 12 12 12 13 13 13 13 12 13 14 13 14 14 14 14 14 14 14 14 14 14 14 14 14 14 14 13 12 11 10 10 9 9 9 10 9 8 7
14 13 12 12 12 12 12 12 12 13 14 14 14 14 14 14 14 15 15 15 15 15 14 15 15 15 15 15 15 15 15 14 13 12 12 11 10 10 9 9 9 9 8 8
13 13 13 12 12 12 12 12 13 13 14 14 15 14 13 13 14 14 15 15 15 15 15 15 16 16 16 16 16 15 15 14 14 13 12 11 11 10 10 9 9 9 9 8
13 13 13 13 12 11 11 12 13 13 13 14 14 14 12 13 14 14 14 14 14 14 14 15 15 16 16 17 17 16 16 15 15 13 12 12 11 11 10 9 9 9 9 9
14 14 14 13 12 12 11 12 13 13 13 13 13 13 12 12 13 14 15 14 14 14 14 15 15 16 16 17 17 17 17 16 15 14 13 13 12 11 10 10 10 10 9 9
14 14 13 13 13 13 12 13 13 13 13 12 12 13 11 12 13 14 14 14 14 15 15 15 14 15 16 16 16 16 16 16 16 15 15 14 13 13 12 10 10 10 9 9
14 13 13 13 13 13 13 13 13 13 13 12 12 12 12 13 13 14 14 15 15 15 15 15 15 15 15 16 16 17 17 16 16 16 16 15 14 13 12 11 10 10 10 9
14 14 13 13 12 13 13 13 13 13 13 12 12 12 12 13 13 14 15 15 15 15 15 15 15 16 16 16 17 17 18 18 17 17 16 16 15 14 13 12 11 10 10 10
14 14 14 13 13 13 13 13 13 13 13 13 12 13 12 12 13 14 15 14 15 15 15 15 16 17 18 18 18 18 18 18 18 17 17 16 15 14 13 12 11 11 10 10
14 14 14 14 14 13 13 13 13 14 14 14 13 12 13 12 12 13 14 14 14 15 16 16 17 17 19 19 18 17 18 18 17 17 17 17 16 15 14 13 11 11 10 10
15 14 14 14 14 14 14 14 14 14 15 13 13 12 12 12 12 13 14 14 14 15 16 17 18 18 18 19 18 17 17 16 16 16 16 16 16 15 14 13 12 12 11 10
16 16 16 15 15 15 14 15 15 15 15 15 14 12 11 12 12 13 14 13 13 14 15 16 18 18 18 18 18 18 17 16 16 16 16 16 15 15 14 14 13 12 12 11
17 17 16 16 15 15 15 15 15 15 15 15 14 13 12 13 13 14 14 14 14 14 14 15 16 17 17 17 18 18 17 16 16 16 15 16 15 15 15 15 14 13 13 12
17 17 17 16 15 15 15 15 15 15 14 14 13 13 12 13 14 14 13 13 13 12 13 14 16 16 16 17 17 17 17 17 17 16 15 15 16 16 16 15 14 13 13 13
18 18 17 17 16 16 16 14 15 14 14 13 13 12 11 13 14 14 14 13 13 12 12 13 14 15 16 16 17 17 16 17 17 17 16 16 16 16 16 16 15 14 14 13
19 18 18 17 16 16 16 14 14 14 14 14 13 12 12 13 14 15 15 14 13 13 13 14 14 16 17 17 17 16 16 17 17 17 17 16 16 17 17 16 16 15 15 14
20 19 19 18 17 17 14 14 14 14 14 14 12 12 12 13 14 14 14 14 13 13 13 14 15 15 16 16 16 16 16 16 16 17 17 16 16 17 17 17 16 16 16 16
20 19 19 19 18 17 15 14 14 15 14 14 13 13 13 13 14 14 15 15 14 14 14 14 16 16 16 16 16 16 16 16 15 15 16 16 17 17 17 17 17 17 17 17
20 19 19 19 18 18 16 15 15 15 14 14 14 14 14 14 14 14 14 14 14 14 14 14 15 15 15 15 16 17 17 16 16 15 15 16 17 17 17 17 18 17 17 17
21 20 19 19 18 17 15 15 15 15 13 13 14 14 14 13 13 14 14 15 14 14 15 15 15 15 15 16 16 16 16 16 16 16 16 16 16 16 16 16 17 17 17 16
21 21 20 19 19 17 16 16 16 14 13 14 14 14 14 14 14 14 14 14 14 14 15 15 15 15 15 15 16 16 16 16 17 17 16 16 16 16 16 16 17 17 17 16
22 22 21 20 19 18 17 16 16 15 15 14 14 14 14 14 14 14 14 14 14 14 14 15 15 15 15 15 16 17 17 17 17 17 17 17 17 17 17 17 17 17 18 18
23 23 22 21 19 18 17 16 16 16 16 15 15 15 15 15 15 15 14 14 15 15 15 15 15 15 15 15 16 16 16 17 18 18 18 18 18 18 18 18 18 18 19 19
23 24 23 22 21 19 18 17 17 17 16 16 15 14 15 15 15 15 15 16 16 17 15 15 15 16 16 16 16 17 17 17 17 18 18 18 18 18 18 19 19 20 20 19
23 23 24 23 22 21 19 18 18 18 17 17 16 15 15 16 16 16 16 16 16 17 17 16 16 17 17 17 17 17 17 18 18 18 19 19 19 19 19 20 20 20 20 20

GEFSCGP_500_meanwind_204.txt.gz
Wind_Speed
12 12 11 11 11 11 11 10 11 12 12 12 12 13 13 14 14 14 14 14 15 16 15 15 15 15 16 15 15 15 14 14 14 13 12 12 12 11 11 11 10 9 8 8
12 13 12 11 11 11 11 12 12 12 12 12 12 12 13 14 15 14 14 15 15 16 15 14 14 15 15 15 16 15 15 15 14 14 13 13 13 12 11 11 11 10 9 9
13 12 12 11 12 12 12 12 12 12 12 13 13 13 13 14 15 14 14 14 15 15 15 15 15 15 16 15 16 16 16 16 15 15 14 13 13 12 11 11 11 10 10 10
14 13 13 12 12 12 12 12 12 12 12 12 13 13 13 13 14 14 14 14 15 16 16 16 15 16 16 16 16 16 16 16 15 15 14 13 12 12 11 11 11 10 10 10
14 13 13 13 12 12 12 12 12 12 13 13 13 13 13 13 13 13 14 14 15 15 15 15 15 15 16 17 16 16 16 16 16 15 14 14 14 13 12 12 12 12 11 11
14 14 14 13 12 12 12 12 12 12 13 13 12 13 13 13 13 13 13 14 15 15 16 16 16 16 16 16 16 16 16 16 16 15 14 14 14 13 13 12 12 12 12 11
14 14 14 13 13 12 12 12 12 12 13 13 12 13 13 13 14 14 14 14 14 15 15 15 15 16 15 15 15 16 16 16 15 15 15 15 14 13 13 12 12 11 11 11
13 14 14 14 14 13 12 13 13 13 13 13 14 14 13 13 14 14 15 15 14 15 15 14 14 15 15 15 16 15 16 16 15 15 15 15 14 13 13 12 12 11 10 10
14 15 14 14 14 14 13 14 13 13 14 14 14 14 14 13 13 14 15 15 14 14 15 15 15 15 15 15 15 16 16 16 15 15 15 15 15 14 14 13 12 12 11 10
14 15 15 14 14 14 14 14 14 14 14 14 14 14 13 13 13 13 14 14 14 13 14 15 15 15 15 16 16 16 15 15 15 16 15 15 15 15 15 14 12 12 11 10
15 15 15 15 15 15 15 15 15 15 14 14 14 14 13 14 14 13 14 14 13 13 14 14 15 15 16 16 17 16 16 16 16 16 16 16 16 16 15 14 13 13 12 11
15 16 16 16 15 15 15 15 16 16 15 15 15 15 13 14 14 13 14 14 14 14 14 14 15 16 16 17 17 17 16 16 16 17 16 15 15 15 15 15 14 14 13 12
16 16 16 16 16 15 15 15 15 16 16 16 16 15 14 14 14 13 14 13 14 15 15 15 15 16 16 16 17 17 17 16 16 16 15 15 14 14 14 14 14 14 13 12
17 17 17 17 16 16 15 16 16 16 16 16 16 15 13 13 14 14 14 13 14 14 14 15 15 16 17 17 17 17 17 17 16 16 16 15 14 14 14 15 14 14 14 13
18 19 18 18 18 17 16 16 16 16 16 15 15 14 12 12 13 14 14 14 14 14 14 15 15 16 16 17 17 17 17 17 17 17 16 16 15 15 14 14 14 14 14 14
20 20 19 19 18 18 18 17 16 16 16 15 14 13 12 13 13 14 14 14 14 14 14 15 15 15 15 15 16 16 17 17 17 17 17 17 16 15 15 15 14 14 14 14
21 20 20 19 19 19 19 17 17 16 16 16 15 13 14 14 14 14 14 13 13 14 15 15 15 15 15 14 15 16 16 17 17 17 17 17 17 16 16 16 15 15 14 14
20 20 20 19 19 20 17 16 16 16 16 15 14 14 14 15 14 14 14 14 14 14 15 15 15 15 15 15 15 16 16 17 17 18 18 18 17 17 17 16 15 15 15 14
21 20 21 20 20 19 17 16 16 16 15 15 14 14 14 15 15 14 14 14 14 14 15 16 15 16 16 16 16 17 17 18 18 18 18 18 18 18 17 16 16 15 15 15
21 21 21 21 20 19 17 16 16 16 15 14 14 14 15 15 15 13 13 14 14 14 14 15 16 17 17 16 16 17 17 18 18 18 18 18 18 18 18 17 17 16 16 16
22 22 21 21 20 19 17 16 15 15 13 14 14 14 14 14 13 12 13 13 14 14 14 14 15 16 16 16 17 17 17 17 17 18 18 18 17 17 17 17 17 17 17 17
22 23 22 22 21 19 17 16 16 15 14 14 14 14 14 13 13 13 13 13 13 14 14 14 14 15 15 16 16 17 17 17 17 18 18 17 16 16 16 17 17 17 17 17
23 23 23 22 21 19 19 17 16 15 15 15 15 15 14 14 14 14 14 13 13 13 13 13 14 14 15 15 15 16 17 17 17 18 18 18 17 17 17 17 17 17 17 17
22 23 23 22 20 19 19 18 17 16 16 16 16 15 15 14 14 14 14 13 13 13 13 13 13 13 14 14 15 15 15 16 17 17 17 18 18 18 18 17 17 17 17 17
24 24 23 22 20 20 19 19 18 17 17 17 17 16 16 15 14 14 14 14 14 14 14 14 13 14 14 14 15 15 15 16 17 17 17 17 17 17 18 18 18 18 18 18
25 25 24 23 22 20 19 19 19 19 18 18 17 17 16 16 16 15 15 15 15 16 16 16 15 15 15 16 15 15 15 16 16 17 17 17 17 17 18 18 19 19 19 19

GEFSCGP_500_meanwind_210.txt.gz
Wind_Speed
12 12 11 10 10 10 11 12 13 14 14 14 15 15 15 16 16 16 16 16 16 15 15 15 15 15 15 15 14 13 14 13 12 12 12 11 11 11 10 9 9 9 9 8
13 12 11 11 10 10 12 12 13 13 13 13 14 15 15 15 15 15 16 16 15 15 15 14 14 15 15 15 14 14 14 14 13 13 12 11 11 10 11 11 10 9 9 9
13 12 12 12 12 12 12 13 13 12 12 13 14 15 14 14 14 15 15 15 15 15 14 14 13 14 14 15 15 14 14 14 14 13 12 12 12 11 11 11 11 10 10 10
13 13 14 14 13 13 13 13 13 13 13 13 14 14 15 14 15 15 15 15 15 15 15 14 14 13 13 13 14 14 14 15 15 14 14 13 13 13 13 12 12 12 12 11
14 14 15 14 14 13 13 13 13 13 13 13 14 15 14 15 15 14 14 14 14 15 15 15 14 14 14 14 14 14 14 14 14 14 14 14 14 13 13 12 12 12 12 11
14 14 15 14 14 14 13 12 13 13 14 14 14 15 15 14 15 14 14 14 15 15 16 15 14 14 14 15 14 14 14 14 14 14 14 14 14 14 13 13 12 12 12 12
15 15 14 14 14 15 13 12 12 12 13 15 14 16 15 15 15 15 14 14 15 16 16 16 15 15 14 15 14 14 15 15 14 14 14 14 13 13 13 13 12 12 11 11
15 15 15 14 14 15 14 13 13 13 13 14 15 16 15 15 15 16 15 15 15 16 17 17 16 16 16 15 15 15 15 15 14 14 15 14 13 13 13 13 12 13 12 12
15 16 15 15 15 15 14 14 14 14 14 14 16 16 16 16 16 16 15 15 16 15 16 16 16 17 16 15 15 15 15 15 14 14 14 14 13 13 13 12 12 12 12 12
16 17 15 15 16 16 15 14 14 15 14 15 16 17 17 17 16 16 16 14 15 15 16 16 16 16 16 16 15 15 15 14 14 14 14 14 14 14 13 13 12 11 11 12
16 16 16 15 15 15 15 15 15 15 15 16 17 18 17 17 17 17 16 15 15 15 15 16 17 16 16 16 15 15 15 15 14 14 14 14 14 14 13 13 12 12 12 12
16 16 16 16 16 16 16 16 16 16 16 15 17 17 16 17 17 17 16 16 16 16 16 16 16 16 16 16 15 15 15 15 14 14 14 14 14 14 13 13 13 13 12 12
16 16 16 16 15 16 16 16 16 17 17 15 16 17 16 17 17 16 16 16 16 16 15 16 16 16 16 15 15 15 15 16 15 15 15 14 14 14 13 14 13 13 13 13
17 17 17 17 16 16 17 17 17 18 18 17 17 17 17 16 17 16 16 16 16 15 15 15 16 16 16 15 15 16 16 16 16 15 15 14 14 14 13 14 14 14 14 13
19 19 19 20 19 19 19 19 17 18 18 19 18 18 18 17 16 16 16 15 15 15 16 16 15 16 16 16 16 15 16 16 16 16 15 15 15 15 14 14 14 13 13 13
20 20 19 20 20 19 20 19 18 17 18 18 19 18 17 16 15 15 15 15 14 14 15 16 16 16 16 16 16 16 16 16 16 16 16 15 15 15 15 15 14 14 14 13
21 21 21 20 19 21 21 19 19 18 18 19 19 17 16 17 16 15 14 15 15 14 14 15 15 16 16 16 16 16 16 17 16 16 16 16 16 16 16 15 15 15 14 14
21 21 21 21 20 21 20 18 19 19 18 18 19 18 17 17 16 15 15 16 16 15 14 14 15 15 16 16 16 17 17 17 17 16 16 16 17 17 16 16 16 15 15 15
23 22 22 22 22 21 19 18 17 18 17 17 18 16 17 17 17 16 16 17 17 16 15 15 14 14 15 15 15 15 16 17 17 17 16 16 17 17 17 16 16 16 16 16
23 22 22 22 22 22 19 18 16 17 18 16 16 16 16 17 17 16 15 16 17 17 16 15 14 14 14 15 15 15 16 16 17 17 16 17 17 17 17 17 17 17 17 18
22 22 23 22 23 21 19 19 17 18 17 16 17 16 15 15 15 15 15 15 16 16 16 15 15 14 15 15 16 16 16 16 16 16 17 17 18 18 18 18 18 18 18 18
24 23 23 23 23 21 19 19 19 18 17 17 17 17 16 15 15 15 14 14 15 15 15 15 15 15 15 15 15 16 17 17 17 17 17 17 17 18 18 18 17 17 18 18
26 25 24 23 23 21 20 20 19 18 18 18 17 17 17 17 16 15 15 14 14 14 14 14 15 15 15 15 15 15 16 17 17 17 17 17 17 17 18 18 17 17 17 17
27 26 25 24 23 23 21 20 20 20 20 20 19 19 18 18 17 16 16 15 14 13 14 14 14 14 15 15 15 15 15 16 17 17 17 17 17 17 17 18 17 17 17 17
26 27 27 26 25 24 22 21 21 22 22 21 21 21 20 18 18 18 17 16 15 15 15 14 13 13 14 15 15 15 16 16 16 17 17 17 17 17 18 18 18 18 18 17
28 27 27 27 26 25 24 22 22 22 22 22 22 22 21 20 20 19 18 17 16 15 15 15 15 14 13 14 15 15 15 16 16 17 17 17 18 18 19 19 19 19 19 19

GEFSCGP_500_meanwind_216.txt.gz
Wind_Speed
9 10 10 10 11 11 11 12 12 12 12 12 13 13 12 12 12 12 12 12 12 12 12 12 12 12 12 12 13 13 13 13 14 14 13 13 13 12 12 12 12 11 10 9
9 9 9 10 11 11 11 11 11 11 12 13 14 14 13 12 12 11 11 11 11 11 11 12 12 12 12 12 12 12 12 13 14 14 13 13 13 13 13 12 12 11 10 10
9 9 9 10 11 11 12 12 12 11 11 12 13 14 13 12 12 11 11 11 12 12 12 12 13 12 12 12 12 12 12 12 13 14 13 13 13 13 12 12 12 12 11 11
10 10 10 11 11 11 12 12 12 12 11 10 11 11 11 12 12 12 12 11 11 12 13 13 13 13 13 13 13 12 12 12 12 12 13 13 14 13 13 12 12 12 12 12
11 11 11 11 11 11 11 11 12 12 12 12 12 12 10 11 12 12 12 12 12 12 12 12 13 13 13 13 13 13 12 12 12 12 13 13 13 14 14 13 13 13 13 12
11 11 11 11 12 12 12 12 13 13 13 13 12 13 11 11 11 11 11 11 12 12 12 12 12 13 12 12 13 13 12 12 13 12 12 13 13 14 14 14 14 14 14 14
12 11 11 11 11 12 12 12 13 13 13 12 11 12 11 10 10 10 10 11 10 12 12 13 13 12 12 12 13 13 13 13 13 13 13 13 14 14 14 14 14 15 15 14
12 11 11 11 11 12 12 13 13 13 13 13 13 13 11 11 11 11 11 11 10 11 12 13 13 13 13 13 13 13 14 13 14 13 14 14 15 15 14 14 14 14 15 14
12 12 11 11 11 12 13 13 13 13 14 15 14 13 13 12 12 12 12 12 11 11 12 12 12 13 14 14 14 14 14 14 14 14 15 14 15 16 15 15 15 14 14 14
13 13 12 11 12 13 13 14 13 14 15 16 15 14 13 12 12 12 12 12 12 12 12 12 12 13 14 14 15 14 15 15 15 15 16 15 15 15 15 15 15 14 14 13
14 13 12 12 12 12 13 14 15 15 16 16 16 14 13 13 12 12 12 12 12 12 12 12 12 13 14 14 15 15 15 15 15 15 15 15 14 15 15 15 16 15 14 14
15 15 14 13 13 13 14 15 16 16 16 17 17 14 14 14 13 13 13 13 13 12 12 12 12 13 13 14 14 15 15 15 15 15 15 15 15 16 16 15 16 15 14 14
16 16 15 15 15 15 15 15 16 17 18 18 18 15 14 14 13 13 13 12 12 11 11 12 13 13 13 14 14 15 15 15 15 15 16 16 16 16 16 15 15 15 14 15
18 18 18 17 17 17 16 17 17 18 19 18 18 16 14 14 14 13 13 12 12 11 11 12 13 13 13 14 14 15 16 16 16 16 17 17 17 16 16 15 15 15 15 15
19 19 19 19 19 19 18 18 18 19 19 19 17 16 14 14 14 13 12 12 12 12 12 12 13 14 14 14 14 14 15 16 16 16 17 17 17 16 16 15 16 15 15 15
20 20 20 19 20 21 21 19 19 19 18 18 17 14 13 14 14 14 14 13 12 12 12 13 13 14 14 14 14 15 15 15 16 16 16 16 16 17 17 17 16 16 16 16
21 21 21 20 19 21 20 18 19 19 18 17 16 14 14 15 15 14 14 14 14 13 12 12 12 12 13 13 15 15 15 15 15 16 16 16 16 15 16 17 16 16 16 16
22 21 22 21 21 22 17 17 18 18 17 17 16 15 16 16 15 14 13 13 13 12 12 12 12 12 12 13 15 15 15 15 15 16 16 16 15 15 15 16 16 16 16 16
21 21 21 21 21 20 17 16 16 17 16 15 15 14 14 14 15 13 12 12 12 12 12 12 12 12 12 13 14 15 15 15 15 16 17 17 16 15 16 15 16 17 17 16
22 22 22 21 21 20 16 17 17 17 16 15 15 14 14 15 14 13 12 13 13 13 13 13 13 12 12 12 14 15 15 15 15 16 16 17 17 17 16 16 17 17 17 17
23 22 22 22 22 20 17 18 19 18 16 15 15 14 14 15 14 14 14 13 13 13 13 13 13 13 13 13 14 14 14 14 15 16 16 17 17 17 17 17 18 18 18 18
23 23 23 23 23 20 19 20 20 19 18 17 16 15 15 14 14 15 14 13 13 13 13 12 13 13 14 14 13 14 15 15 16 16 16 16 17 17 17 17 17 17 17 18
25 24 23 23 22 21 21 22 22 21 19 19 18 16 16 16 16 15 16 15 14 13 13 13 13 13 13 13 13 14 15 16 17 17 17 16 16 17 18 18 18 17 17 18
25 24 24 24 22 22 22 23 22 21 20 19 19 18 17 16 16 17 16 16 15 14 14 14 14 14 13 14 14 14 14 15 16 17 18 17 17 17 17 18 18 17 17 17
25 25 25 24 23 23 23 22 22 21 21 20 20 18 18 18 17 17 17 16 15 15 15 15 14 15 14 14 14 15 15 15 15 17 18 18 18 18 18 18 17 17 17 17
26 26 26 25 25 25 24 23 23 23 22 22 22 20 20 19 19 18 18 17 16 17 16 16 15 15 15 15 15 15 16 16 17 17 17 17 18 18 18 18 17 17 17 17

GEFSCGP_500_meanwind_222.txt.gz
Wind_Speed
11 11 11 11 12 12 12 12 12 13 13 13 13 13 13 14 15 16 15 15 14 12 12 13 13 13 13 13 14 15 15 14 14 14 14 14 14 14 13 13 13 13 12 12
12 11 11 12 12 12 12 12 12 13 14 14 14 14 15 15 15 17 17 15 14 13 12 12 13 14 14 15 15 15 16 15 15 15 15 14 14 14 14 14 13 13 13 13
11 11 11 11 11 12 12 12 12 12 13 14 14 14 15 16 16 17 17 17 16 14 13 12 13 13 14 15 16 16 15 15 15 15 15 14 14 13 13 13 14 14 13 13
11 11 11 11 12 12 12 12 13 13 13 13 14 14 14 15 16 16 16 16 15 13 13 13 13 13 13 14 15 15 15 15 15 14 14 13 13 13 13 13 13 13 13 13
11 11 12 12 12 12 12 12 13 13 13 14 14 14 13 14 14 14 15 16 15 15 14 14 14 14 14 14 15 15 14 14 14 14 13 13 13 13 13 13 13 12 13 13
12 12 13 13 13 13 13 14 14 14 14 15 14 15 13 13 13 14 15 16 16 15 15 15 14 14 14 14 14 13 14 14 14 14 14 14 13 14 14 14 14 13 13 13
13 13 13 13 14 14 14 14 14 14 15 15 14 14 13 13 13 13 14 15 15 15 15 15 15 14 13 13 13 14 14 14 14 14 14 14 14 14 14 15 14 15 15 14
14 13 13 13 14 14 14 14 14 15 14 14 14 14 12 12 12 13 13 14 14 15 15 15 15 15 15 15 14 14 13 13 14 15 14 15 15 15 15 15 15 15 15 15
15 14 14 14 14 14 14 14 15 15 15 15 14 13 12 12 13 13 13 14 14 14 15 15 15 15 15 15 15 15 14 14 14 15 15 14 15 15 15 16 16 16 16 15
15 15 14 14 15 15 15 15 15 15 16 15 14 13 12 11 12 12 13 13 14 14 14 15 15 15 15 15 15 15 15 15 14 14 15 15 15 15 15 15 16 16 16 16
17 16 15 15 16 16 15 16 16 16 16 16 15 13 12 11 11 12 12 13 13 13 14 15 15 14 14 14 15 15 16 16 16 16 16 16 16 15 16 16 16 16 16 16
17 18 16 16 16 17 17 17 17 17 16 16 17 13 13 12 12 12 13 13 13 13 13 14 14 14 14 14 15 16 16 17 17 17 17 16 16 16 16 16 17 17 17 17
18 19 18 17 17 17 18 18 17 18 18 18 17 14 13 12 12 13 13 13 13 14 13 14 14 14 14 15 15 17 17 17 16 16 16 16 17 16 16 16 16 16 17 16
19 20 19 19 18 18 18 19 19 20 20 19 17 16 13 13 13 13 14 14 14 14 14 14 14 14 14 15 15 16 17 17 17 17 17 17 17 17 16 16 16 16 16 16
21 21 20 20 20 19 19 19 20 20 20 20 17 16 13 14 15 15 15 14 14 14 14 14 14 14 15 15 15 15 16 17 17 17 17 16 16 17 16 16 16 16 16 16
22 22 22 21 21 21 20 20 20 19 19 19 18 17 16 16 16 16 16 15 15 14 14 15 15 15 15 15 15 16 16 16 16 16 16 16 16 16 16 16 15 15 16 16
24 24 23 22 23 23 22 19 20 20 19 19 19 18 17 17 17 16 16 16 16 15 15 15 15 15 15 15 15 15 15 15 15 15 16 16 16 15 15 15 15 15 15 15
25 25 25 24 24 25 21 20 20 20 19 19 19 18 17 17 17 17 16 15 15 15 16 16 15 15 15 15 15 15 15 15 15 15 15 15 15 15 15 15 15 15 15 15
26 26 26 26 25 23 21 20 20 20 19 18 18 18 17 17 17 17 17 16 16 15 15 15 14 15 15 15 15 15 15 15 14 14 14 15 15 15 15 15 15 15 15 16
26 26 26 26 25 24 20 21 21 22 20 19 19 18 18 17 17 17 17 16 16 15 15 15 14 14 14 14 14 14 15 14 14 14 14 14 15 15 15 15 15 16 16 16
26 27 27 27 26 23 22 22 22 22 20 20 19 19 18 17 17 16 16 16 16 15 15 15 14 15 14 14 14 14 14 14 14 14 15 15 15 14 14 15 15 16 16 16
26 27 27 27 27 24 23 23 23 23 22 21 21 19 18 18 17 16 16 17 16 16 16 16 16 16 16 15 15 14 14 15 15 15 15 15 14 14 14 14 14 15 16 15
27 27 27 27 26 24 24 23 23 23 22 21 20 20 19 19 18 18 18 18 18 18 18 17 17 17 17 16 16 15 15 15 16 16 16 15 14 14 14 15 15 15 16 16
27 27 27 27 26 25 25 24 23 23 23 22 21 20 20 19 19 19 19 19 19 18 19 18 17 17 17 17 17 15 16 16 16 16 16 16 15 15 16 16 16 16 16 16
27 26 26 26 25 26 25 25 25 24 24 23 21 20 21 20 20 20 19 19 19 19 19 20 19 19 18 17 17 17 16 16 17 17 17 17 17 17 17 17 17 17 17 17
28 27 27 27 26 27 26 25 25 25 25 23 23 22 22 22 22 21 21 20 20 19 19 20 20 19 18 18 18 18 18 18 17 17 17 18 18 18 18 18 18 18 18 18

GEFSCGP_500_meanwind_228.txt.gz
Wind_Speed
8 8 8 9 9 9 9 9 10 10 11 11 12 12 13 13 14 14 14 13 13 13 14 14 14 14 15 15 14 14 15 14 14 14 14 14 14 14 15 15 14 14 13 13
8 9 9 9 9 9 9 10 11 11 12 12 12 12 12 13 14 14 14 14 14 14 14 15 14 15 15 15 15 15 15 14 14 14 14 14 15 15 15 14 14 14 14 14
9 8 8 8 8 9 9 10 11 11 12 12 12 12 12 12 13 14 14 14 15 15 15 15 14 14 14 14 15 16 15 15 15 15 15 16 15 15 15 14 14 14 14 13
9 8 8 8 9 9 10 10 10 11 11 12 12 12 12 13 13 13 14 14 15 15 15 15 15 15 14 14 14 15 15 16 16 15 16 16 15 15 15 15 14 14 14 14
9 9 9 10 10 10 10 10 10 11 11 11 12 12 11 12 13 14 14 14 14 15 15 15 15 15 14 14 15 15 14 15 15 15 15 15 15 14 14 14 14 14 14 14
10 10 10 11 10 10 10 11 11 11 11 12 12 12 12 12 13 14 15 15 14 15 15 15 15 16 16 15 15 14 14 14 15 14 15 15 15 15 14 13 14 14 14 14
11 11 11 11 11 11 11 11 11 12 12 12 12 13 12 12 13 14 14 15 15 15 16 16 16 16 16 16 15 14 14 14 14 15 15 15 15 15 15 14 14 14 14 14
12 12 12 12 12 12 12 12 12 13 13 13 13 13 13 13 14 14 14 15 15 15 15 15 15 15 15 15 15 14 15 15 15 14 15 15 15 16 15 14 15 15 15 15
14 14 13 13 13 13 13 13 13 13 13 13 13 14 14 14 14 14 14 14 14 14 14 14 15 15 15 15 15 15 15 15 15 15 15 15 15 15 15 14 15 15 15 15
14 15 14 14 13 13 14 13 13 13 13 13 14 14 14 14 14 14 14 14 14 14 14 13 14 14 14 15 15 15 16 16 16 16 16 15 15 16 16 15 15 15 16 15
15 15 15 15 14 14 14 14 14 14 14 14 15 15 15 14 14 14 13 14 14 14 14 14 14 14 15 15 16 16 16 17 17 16 16 15 15 16 16 16 16 16 16 16
16 16 16 16 16 15 15 15 15 15 15 15 16 16 15 14 14 14 14 14 14 14 14 14 14 15 15 15 16 16 16 16 16 16 16 16 16 16 16 17 17 17 17 17
18 17 17 17 17 17 16 16 16 16 16 16 16 16 15 14 15 15 15 15 15 14 14 14 14 14 14 15 16 16 16 16 16 16 16 16 16 15 15 16 16 16 17 17
19 19 18 18 18 18 17 17 17 17 18 17 17 16 16 16 16 15 15 15 15 15 15 15 15 14 14 15 16 16 16 16 16 16 15 16 16 16 16 15 16 16 16 16
20 20 19 20 20 19 19 18 19 19 19 19 18 17 16 17 16 16 16 16 15 15 15 15 15 14 15 15 15 16 16 16 16 16 16 15 15 16 16 16 16 15 15 15
20 20 20 20 21 21 20 20 20 20 20 20 19 18 17 17 17 17 16 16 15 15 15 15 15 15 15 15 15 16 16 16 16 16 16 15 15 15 15 16 16 15 15 16
21 21 21 22 21 21 21 20 21 21 20 20 20 18 18 18 17 17 17 17 16 16 16 16 15 15 15 15 15 15 15 16 16 16 16 16 15 15 15 15 15 16 16 15
22 22 23 23 23 24 22 20 20 21 20 20 19 19 18 17 17 17 17 17 17 17 16 16 16 16 15 15 15 15 15 15 16 16 15 15 16 16 16 15 14 14 15 15
23 24 25 25 25 24 22 21 21 21 21 20 20 19 18 18 18 18 17 17 16 16 16 16 17 16 15 15 15 15 15 15 15 15 14 15 15 14 14 14 14 14 15 15
25 25 26 26 26 26 24 22 21 21 21 20 21 20 20 19 18 19 18 17 17 16 15 15 16 16 15 15 15 15 14 14 14 14 14 14 14 14 14 14 14 14 14 14
26 27 27 27 27 27 25 23 23 23 22 21 21 21 21 20 19 19 18 18 17 17 16 16 16 16 16 15 15 14 14 13 14 14 14 14 14 14 14 14 14 14 14 14
28 28 28 27 28 27 25 25 24 24 23 22 23 22 22 21 20 19 18 18 18 18 17 17 16 16 16 16 16 15 15 14 14 15 14 14 15 15 15 15 14 14 14 14
29 29 28 28 27 26 26 26 26 25 24 23 23 22 22 22 22 20 20 19 19 19 18 17 17 17 17 17 17 16 16 16 16 15 15 15 16 16 15 15 15 15 14 14
29 29 28 27 27 27 27 27 26 26 25 24 24 23 24 23 23 22 21 20 20 20 19 19 18 18 18 17 17 17 17 17 16 16 16 16 17 17 17 16 16 15 15 15
28 27 27 27 27 27 27 26 26 25 25 24 24 25 24 24 24 23 22 21 21 21 20 20 19 19 19 18 18 18 18 17 18 18 17 17 18 18 18 17 17 17 17 17
27 27 28 27 27 27 26 26 26 26 25 25 25 25 26 25 24 24 23 22 22 22 21 21 20 20 20 20 19 19 19 19 19 18 18 18 18 18 19 18 18 18 18 18

GEFSCGP_500_meanwind_234.txt.gz
Wind_Speed
8 9 8 9 9 9 10 10 11 11 12 12 12 12 13 14 14 14 15 14 14 15 15 14 15 15 15 15 14 14 14 14 14 14 14 14 14 14 14 13 13 14 15 15
8 8 8 9 9 10 10 11 11 11 12 12 12 12 13 14 15 15 15 15 15 15 15 15 15 15 16 15 15 15 15 15 15 15 14 14 14 13 13 13 13 13 14 14
9 9 9 9 9 9 9 10 11 11 12 12 12 13 13 13 14 14 15 16 15 15 15 15 16 15 16 15 16 16 15 15 14 13 13 13 13 13 13 13 14 14 14 14
9 9 8 9 9 9 9 9 10 11 12 11 12 13 14 13 14 15 15 15 15 14 15 15 15 16 16 15 16 15 15 14 14 14 13 13 13 13 13 14 14 14 13 13
10 9 9 9 9 9 9 10 10 10 11 11 13 14 15 15 15 15 15 15 15 15 15 15 15 16 16 16 15 15 15 15 14 13 13 14 13 14 14 14 14 14 13 13
10 9 9 10 10 9 10 10 10 10 11 12 12 14 15 16 16 16 15 15 15 15 16 16 16 16 16 16 16 15 15 14 14 13 13 14 14 14 14 13 13 13 13 13
11 11 11 10 10 10 10 10 10 10 11 12 13 15 15 15 16 16 16 15 15 16 16 17 16 16 16 16 15 14 14 14 14 14 14 14 14 13 13 13 14 14 14 13
12 12 12 12 11 11 11 10 10 10 11 13 14 15 15 16 17 16 16 16 16 16 16 16 16 16 15 15 15 14 14 14 14 14 14 15 14 14 14 14 14 14 14 14
13 14 14 13 12 12 12 12 11 12 12 12 14 17 17 16 17 17 16 16 16 16 16 16 16 15 15 15 15 15 15 15 15 15 16 16 15 14 15 15 15 15 14 14
15 16 16 14 13 13 14 13 13 13 13 12 13 16 18 18 18 17 17 16 15 15 15 15 15 15 15 14 14 15 15 15 15 15 16 16 15 15 15 15 15 15 15 15
16 16 17 16 15 15 14 15 15 15 14 14 15 16 18 19 19 18 18 17 16 16 16 16 16 16 16 15 15 15 15 15 15 15 15 16 16 16 15 15 15 15 15 16
17 17 17 17 16 16 16 16 16 16 16 16 17 18 19 19 19 19 18 18 18 18 17 17 17 17 17 16 15 15 15 15 15 15 16 16 17 16 16 16 16 16 15 16
18 19 18 18 19 17 17 16 17 17 17 17 17 17 19 19 19 20 20 19 19 19 19 18 18 18 18 17 16 16 15 15 15 16 16 16 17 17 17 17 17 17 17 17
19 19 19 19 19 19 19 18 18 18 17 18 18 17 19 20 20 20 20 19 19 19 19 19 19 18 18 17 17 17 16 16 16 16 16 16 17 17 17 17 17 17 17 16
20 20 19 20 20 20 21 21 20 20 19 20 19 19 19 21 21 20 20 20 20 19 19 19 18 18 18 17 17 17 16 16 16 16 16 15 16 16 16 17 17 16 16 16
21 21 20 20 20 20 21 21 22 21 20 20 20 20 21 21 21 21 21 20 20 19 19 18 18 18 18 17 17 17 16 16 15 15 16 16 15 16 16 16 15 15 16 16
21 22 22 21 21 22 22 21 22 22 22 22 21 21 21 20 22 21 21 21 21 20 19 18 18 18 17 17 17 17 17 16 16 16 16 15 15 16 16 15 15 15 15 15
23 23 23 23 23 24 23 23 23 22 22 22 22 21 20 20 21 21 22 22 21 20 20 19 18 18 17 16 16 17 17 17 17 17 17 16 16 15 14 14 14 15 16 16
25 25 24 25 25 25 24 24 22 22 23 22 22 22 21 21 21 22 22 22 22 21 20 19 19 18 17 17 17 17 17 17 17 17 17 16 15 15 14 14 14 15 16 16
25 26 26 26 27 27 26 25 24 24 25 23 24 24 23 23 23 23 23 22 21 20 20 19 18 18 18 18 18 18 17 17 17 17 17 16 16 16 15 14 14 15 16 16
25 26 27 28 29 29 28 26 25 26 25 24 24 24 24 24 25 24 23 22 22 21 20 19 19 18 18 18 18 18 17 17 17 16 16 17 17 16 15 15 15 15 16 16
27 27 28 29 30 29 28 27 27 27 26 26 26 25 25 25 25 24 24 23 22 22 21 20 20 19 18 18 18 18 18 17 17 17 17 17 17 17 17 17 16 16 16 15
28 29 29 29 29 29 29 29 28 28 28 28 27 27 26 26 24 24 24 23 23 22 21 21 21 21 20 20 19 19 18 18 18 18 18 18 19 19 19 18 18 17 17 17
28 28 29 29 29 28 28 29 30 29 29 29 27 27 27 27 26 25 25 24 24 23 23 22 22 22 21 21 20 20 19 19 19 19 19 19 20 20 20 20 20 19 19 19
28 28 29 29 29 29 29 29 30 30 30 29 28 28 28 27 27 27 27 26 26 25 24 24 24 23 22 22 21 21 21 21 20 20 20 20 21 20 20 21 21 21 21 21
28 28 29 29 29 29 29 29 29 29 29 29 29 29 29 29 28 28 27 27 26 26 25 25 24 24 23 23 23 23 22 22 22 22 21 21 21 21 21 21 21 21 22 22

GEFSCGP_500_meanwind_240.txt.gz
Wind_Speed
9 9 8 8 8 9 9 8 9 9 9 9 8 8 8 9 10 10 10 11 11 11 11 10 11 11 11 12 12 12 11 11 12 12 12 12 12 12 12 12 12 11 11 11
9 9 9 9 8 9 9 8 8 8 8 8 8 8 8 8 9 9 10 10 11 11 11 11 11 11 11 11 11 11 11 11 11 12 11 12 12 12 12 12 12 12 12 11
8 8 9 9 8 8 8 8 8 8 8 8 8 8 8 8 9 9 9 9 10 10 11 11 11 11 11 11 11 11 12 12 12 12 12 12 11 12 12 12 12 12 12 12
8 8 9 9 8 9 8 8 9 8 8 8 8 8 8 9 9 8 8 9 9 10 11 10 10 10 11 11 11 11 12 12 13 13 13 12 12 12 11 11 12 13 13 13
8 9 9 9 9 9 9 9 9 9 9 9 9 9 8 9 9 8 9 9 10 10 11 11 11 11 11 11 12 12 12 13 13 13 13 12 12 12 12 12 13 13 13 13
9 9 9 9 9 10 10 10 10 9 9 10 10 10 9 9 9 9 9 10 10 10 11 11 11 11 11 11 12 12 12 12 12 12 12 12 12 13 13 13 13 13 13 13
9 9 8 9 9 9 10 10 10 10 10 11 10 11 10 9 9 9 10 10 10 11 11 12 11 11 12 12 12 12 12 12 12 12 12 12 12 12 13 13 13 13 13 14
10 10 9 9 10 10 10 11 12 11 11 10 10 10 10 10 10 9 10 11 11 12 12 12 12 12 12 13 13 12 12 12 12 12 11 12 12 12 12 13 13 13 14 14
11 11 11 11 12 11 12 13 13 13 13 13 12 11 10 10 10 10 11 11 12 12 13 13 14 13 13 13 13 13 13 13 13 12 12 12 12 12 13 13 13 13 14 14
13 13 13 13 12 12 13 13 14 14 14 14 14 13 12 11 12 12 12 12 12 13 13 13 13 13 12 13 13 13 14 14 13 13 13 13 13 13 14 13 13 14 14 14
14 15 15 14 14 14 14 14 15 15 15 16 16 14 13 14 14 14 13 13 13 13 13 13 14 14 13 13 14 14 14 14 14 14 14 14 14 14 14 14 14 14 15 15
16 16 16 16 16 16 16 16 16 17 17 17 18 15 14 15 15 14 14 14 14 14 14 14 14 14 14 15 14 14 14 14 14 14 14 14 14 14 14 14 14 15 15 16
16 17 17 17 17 17 17 17 17 17 18 17 18 16 15 16 15 14 14 14 14 15 15 15 16 16 15 15 14 14 15 15 15 14 14 14 14 14 14 14 15 15 16 16
17 18 18 18 17 17 17 17 18 18 18 18 18 17 17 17 17 15 15 15 16 16 16 16 16 16 16 16 15 15 15 15 15 15 15 15 15 15 15 15 15 16 16 17
19 19 20 19 18 18 18 17 17 19 19 20 18 19 18 19 18 17 17 16 17 16 16 16 16 16 16 16 15 15 16 16 17 16 16 16 16 16 15 15 16 15 15 15
21 21 21 20 20 20 19 17 18 19 20 21 20 19 19 20 19 19 18 18 18 18 18 17 16 16 17 17 17 16 16 17 17 17 17 16 16 16 16 16 16 16 16 16
22 23 22 21 21 22 21 19 19 20 20 21 21 19 19 20 20 19 18 17 18 18 18 17 17 17 16 17 17 17 17 17 17 17 17 17 17 17 17 17 16 16 16 16
23 23 24 23 23 25 22 21 21 21 21 21 21 20 20 20 20 19 19 19 19 19 18 18 18 17 17 17 17 17 17 16 17 17 16 17 17 18 17 17 16 16 17 17
23 24 25 25 25 26 24 22 22 22 22 22 22 21 21 21 21 20 21 21 21 20 19 18 18 18 18 18 18 18 17 16 17 17 17 17 18 18 18 17 16 16 16 16
24 25 26 27 27 28 24 24 24 24 23 22 23 22 21 21 21 20 22 21 21 21 20 19 19 19 19 18 18 18 18 17 17 17 17 18 18 19 18 18 17 17 17 17
26 26 26 27 28 28 25 24 25 25 23 23 23 23 22 22 21 21 21 21 21 21 20 20 20 20 19 19 18 18 18 18 17 17 17 18 18 19 19 18 18 18 17 17
27 26 26 27 27 26 25 25 25 25 24 24 23 24 23 23 22 22 22 22 22 21 21 21 21 20 20 19 19 19 19 19 19 18 18 18 19 19 20 20 19 19 18 18
28 27 27 27 27 26 26 26 26 26 26 25 25 25 25 24 23 23 23 23 23 22 22 21 21 21 21 21 21 21 20 20 19 19 20 20 20 20 20 20 21 20 20 20
27 27 27 27 27 27 26 26 27 27 27 27 26 26 25 25 25 24 24 24 24 23 23 22 23 23 22 22 23 22 22 21 21 21 21 21 21 22 21 21 22 22 21 21
27 27 28 28 27 28 27 27 27 27 28 28 28 28 27 27 27 26 26 25 25 25 25 24 24 24 23 23 23 23 23 22 22 22 22 22 22 23 23 23 22 22 23 23
28 29 28 28 28 28 27 28 27 27 28 28 28 28 27 27 27 26 26 26 25 25 26 26 25 25 24 24 24 24 24 24 24 23 23 23 23 23 24 24 24 24 24 24